Sigfox identifier Datetime Temperature Humidity SNR
003A7977 2019-04-12 12:29:39 21.1 17 21.4
003A7977 2019-04-12 11:58:33 21.1 17 21.2
003A7977 2019-04-12 11:27:28 21.2 18 21.3
003A7977 2019-04-12 10:56:22 21.2 18 21.4
003A7977 2019-04-12 10:25:17 21.1 18 21.3
003A7977 2019-04-12 09:54:10 21.1 18 21.5
003A7977 2019-04-12 09:23:05 20.9 17 21.5
003A7977 2019-04-12 08:51:59 20.9 17 21.4
003A7977 2019-04-12 08:20:53 20.9 18 21.4
003A7977 2019-04-12 07:49:46 20.9 18 21.4
003A7977 2019-04-12 07:18:39 20.9 18 21.4
003A7977 2019-04-12 06:47:31 20.9 18 21.3
003A7977 2019-04-12 06:16:25 20.9 18 21.3
003A7977 2019-04-12 05:45:19 20.9 18 21.4
003A7977 2019-04-12 05:14:13 21 18 21.2
003A7977 2019-04-12 04:43:05 21 18 21.3
003A7977 2019-04-12 04:12:00 21 18 21.2
003A7977 2019-04-12 03:40:53 21 18 21.2
003A7977 2019-04-12 03:09:46 21 18 21.1
003A7977 2019-04-12 02:38:40 21.1 18 21.1
003A7977 2019-04-12 02:07:33 21.1 18 21
003A7977 2019-04-12 01:36:26 21.1 19 20.8
003A7977 2019-04-12 01:05:19 21.2 19 20.9
003A7977 2019-04-12 00:34:13 21.3 19 20.6
003A7977 2019-04-12 00:03:07 21.4 19 20.5
003A7977 2019-04-11 23:32:01 21.4 19 20.4
003A7977 2019-04-11 23:00:55 21.5 18 20.3
003A7977 2019-04-11 22:29:49 21.5 18 21.5
003A7977 2019-04-11 21:58:42 21.5 18 21.5
003A7977 2019-04-11 21:27:36 21.5 18 21.5
003A7977 2019-04-11 20:56:29 21.5 18 21.5
003A7977 2019-04-11 20:25:23 21.5 17 21.6
003A7977 2019-04-11 19:54:17 21.4 17 21.6
003A7977 2019-04-11 19:23:11 21.4 17 21.7
003A7977 2019-04-11 18:52:02 21.3 17 21.8
003A7977 2019-04-11 18:20:55 21.3 17 21.9
003A7977 2019-04-11 17:49:48 21.4 17 21.8
003A7977 2019-04-11 17:18:41 21.4 17 21.8
003A7977 2019-04-11 16:47:33 21.5 17 21.7
003A7977 2019-04-11 16:16:28 21.5 18 21.9
003A7977 2019-04-11 15:45:18 21.4 18 21.9
003A7977 2019-04-11 15:14:11 21.2 18 21.9
003A7977 2019-04-11 14:43:05 21.1 18 21.9
003A7977 2019-04-11 14:11:57 21.1 18 22
003A7977 2019-04-11 13:40:51 21 18 22
003A7977 2019-04-11 13:09:44 20.9 17 22.2
003A7977 2019-04-11 12:38:37 20.9 17 22.3
003A7977 2019-04-11 12:07:30 21 18 22.4
003A7977 2019-04-11 11:36:23 21 18 22.5
003A7977 2019-04-11 11:04:44 20.9 18 22.6
003A7977 2019-04-11 10:33:39 20.9 18 22.7
003A7977 2019-04-11 10:02:30 20.8 18 21.7
003A7977 2019-04-11 09:31:23 20.8 18 21.8
003A7977 2019-04-11 09:00:16 20.8 18 21.8
003A7977 2019-04-11 08:29:10 20.8 18 21.8
003A7977 2019-04-11 07:58:04 20.7 18 21.8
003A7977 2019-04-11 07:26:58 20.8 18 22
003A7977 2019-04-11 06:55:52 20.8 18 21.9
003A7977 2019-04-11 06:24:48 20.8 18 21.9
003A7977 2019-04-11 05:53:41 20.8 18 21.9
003A7977 2019-04-11 05:22:34 20.8 18 21.8
003A7977 2019-04-11 04:51:27 20.8 19 22
003A7977 2019-04-11 04:20:18 20.8 19 22.2
003A7977 2019-04-11 03:49:12 20.9 19 22.1
003A7977 2019-04-11 03:18:06 20.9 19 22.1
003A7977 2019-04-11 02:46:59 20.9 19 22
003A7977 2019-04-11 02:15:52 20.9 19 22
003A7977 2019-04-11 01:44:44 21 19 21.9
003A7977 2019-04-11 01:13:38 21 19 21.8
003A7977 2019-04-11 00:42:29 21 19 21.7
003A7977 2019-04-11 00:11:21 21 19 21.7
003A7977 2019-04-10 23:40:13 21 19 21.8
003A7977 2019-04-10 23:09:06 21 19 21.7
003A7977 2019-04-10 22:37:59 21 19 22
003A7977 2019-04-10 22:06:50 21 19 22
003A7977 2019-04-10 21:35:42 21 19 22
003A7977 2019-04-10 21:04:34 21 18 22
003A7977 2019-04-10 20:33:27 21 18 22
003A7977 2019-04-10 20:02:21 20.9 18 22.2
003A7977 2019-04-10 19:31:14 20.9 18 22.1
003A7977 2019-04-10 19:00:06 20.8 18 22.1
003A7977 2019-04-10 18:28:57 20.8 18 22.1
003A7977 2019-04-10 17:57:47 20.8 18 22.1
003A7977 2019-04-10 17:26:39 20.8 19 22
003A7977 2019-04-10 16:55:31 20.8 19 21.9
003A7977 2019-04-10 16:24:23 20.9 19 22.1
003A7977 2019-04-10 15:53:16 20.9 19 21.9
003A7977 2019-04-10 15:22:09 20.9 19 21.9
003A7977 2019-04-10 14:51:02 21 20 21.9
003A7977 2019-04-10 14:19:55 21 20 22.1
003A7977 2019-04-10 13:48:48 21 20 22.1
003A7977 2019-04-10 13:17:39 20.9 20 22.3
003A7977 2019-04-10 12:46:32 20.9 20 22.4
003A7977 2019-04-10 12:15:24 20.9 21 22.5
003A7977 2019-04-10 11:44:17 20.9 21 22.6
003A7977 2019-04-10 11:13:10 20.8 21 22.5
003A7977 2019-04-10 10:42:01 20.8 21 22.5
003A7977 2019-04-10 10:10:54 20.8 22 22.5
003A7977 2019-04-10 09:39:45 20.8 22 22.3
003A7977 2019-04-10 09:08:05 20.6 22 22.4
003A7977 2019-04-10 08:36:58 20.6 22 22.5
003A7977 2019-04-10 08:05:51 20.6 23 22.5
003A7977 2019-04-10 07:34:43 20.6 23 22.3
003A7977 2019-04-10 07:03:35 20.6 23 22.4
003A7977 2019-04-10 06:32:27 20.7 23 22.4
003A7977 2019-04-10 06:01:19 20.6 23 22.3
003A7977 2019-04-10 05:30:12 20.6 24 22.3
003A7977 2019-04-10 04:59:05 20.6 24 22.3
003A7977 2019-04-10 04:27:57 20.6 24 22.3
003A7977 2019-04-10 03:56:51 20.6 24 22.4
003A7977 2019-04-10 03:25:45 20.6 24 22.4
003A7977 2019-04-10 02:54:39 20.7 25 22.3
003A7977 2019-04-10 02:23:30 20.7 25 22.3
003A7977 2019-04-10 01:52:21 20.7 25 22.3
003A7977 2019-04-10 01:21:12 20.7 26 22.3
003A7977 2019-04-10 00:50:04 20.7 26 22.3
003A7977 2019-04-10 00:18:56 20.7 26 22.4
003A7977 2019-04-09 23:47:49 20.8 26 22.3
003A7977 2019-04-09 23:16:41 20.8 27 22.2
003A7977 2019-04-09 22:45:33 20.8 27 22.3
003A7977 2019-04-09 22:14:24 20.8 27 22.2
003A7977 2019-04-09 21:43:15 20.8 27 22.3
003A7977 2019-04-09 21:12:06 20.8 27 22.3
003A7977 2019-04-09 20:40:56 20.8 27 22.3
003A7977 2019-04-09 20:09:48 20.8 27 22.4
003A7977 2019-04-09 19:38:41 20.8 27 22.4
003A7977 2019-04-09 19:07:33 20.7 27 22.4
003A7977 2019-04-09 18:36:25 20.8 27 22.4
003A7977 2019-04-09 18:05:18 20.8 27 22.2
003A7977 2019-04-09 17:34:11 20.9 28 22.3
003A7977 2019-04-09 17:03:04 20.9 28 22.4
003A7977 2019-04-09 16:31:58 20.9 27 22.4
003A7977 2019-04-09 16:00:50 20.9 27 22.4
003A7977 2019-04-09 15:29:43 20.9 27 22.6
003A7977 2019-04-09 14:58:35 21 27 22.4
003A7977 2019-04-09 14:27:28 20.9 26 22.4
003A7977 2019-04-09 13:56:21 21 26 22.7
003A7977 2019-04-09 13:25:14 21 26 22.6
003A7977 2019-04-09 12:54:05 21 26 22.6
003A7977 2019-04-09 12:22:55 21 26 23.3
003A7977 2019-04-09 11:51:46 21.1 26 23.2
003A7977 2019-04-09 11:20:37 21 26 23.3
003A7977 2019-04-09 10:49:30 20.9 26 23.3
003A7977 2019-04-09 10:18:22 20.9 26 23.3
003A7977 2019-04-09 09:47:15 20.8 26 23.3
003A7977 2019-04-09 09:16:06 20.8 26 23.2
003A7977 2019-04-09 08:44:58 20.8 26 23.1
003A7977 2019-04-09 08:13:51 20.8 26 23.2
003A7977 2019-04-09 07:42:44 20.8 25 23.2
003A7977 2019-04-09 07:10:55 20.8 25 23.1
003A7977 2019-04-09 06:39:47 20.8 25 23.1
003A7977 2019-04-09 06:08:41 20.8 25 23.8
003A7977 2019-04-09 05:37:34 20.8 25 23.7
003A7977 2019-04-09 05:06:26 20.8 25 23.8
003A7977 2019-04-09 04:35:19 20.9 25 23.8
003A7977 2019-04-09 04:04:11 20.9 25 23.6
003A7977 2019-04-09 03:33:04 20.8 26 23.7
003A7977 2019-04-09 03:01:57 20.9 26 23.7
003A7977 2019-04-09 01:59:42 20.9 26 23.7
003A7977 2019-04-09 01:28:34 20.9 26 23.6
003A7977 2019-04-09 00:57:26 20.9 26 23.6
003A7977 2019-04-09 00:26:18 20.9 26 23.5
003A7977 2019-04-08 23:55:11 20.9 26 23.4
003A7977 2019-04-08 23:24:02 20.9 26 22.6
003A7977 2019-04-08 22:52:55 21 26 22.7
003A7977 2019-04-08 22:21:48 21 26 22.6
003A7977 2019-04-08 21:50:41 21 26 22.7
003A7977 2019-04-08 21:19:34 21 26 22.7
003A7977 2019-04-08 20:48:28 21 26 22.6
003A7977 2019-04-08 20:17:22 21 26 22.5
003A7977 2019-04-08 19:46:15 21 26 22.5
003A7977 2019-04-08 19:15:08 21 26 22.7
003A7977 2019-04-08 18:44:00 21 26 22.7
003A7977 2019-04-08 18:12:53 21 27 22.6
003A7977 2019-04-08 17:41:46 21 27 22.7
003A7977 2019-04-08 17:10:39 21 27 21.8
003A7977 2019-04-08 16:39:31 21 27 21.8
003A7977 2019-04-08 16:08:24 21.1 27 21.9
003A7977 2019-04-08 15:37:16 21.1 27 21.9
003A7977 2019-04-08 15:06:06 21.1 26 22.1
003A7977 2019-04-08 14:34:57 21.1 26 22.1
003A7977 2019-04-08 14:03:48 21.1 26 22
003A7977 2019-04-08 13:32:39 21.2 26 21.9
003A7977 2019-04-08 13:01:30 21.1 26 22
003A7977 2019-04-08 12:30:22 20.9 26 22
003A7977 2019-04-08 11:59:14 20.8 25 21.8
003A7977 2019-04-08 11:28:05 20.8 25 22.1
003A7977 2019-04-08 10:56:57 20.7 25 22.3
003A7977 2019-04-08 10:25:47 20.7 25 22.3
003A7977 2019-04-08 09:54:40 20.6 25 22.3
003A7977 2019-04-08 09:23:32 20.6 24 22.3
003A7977 2019-04-08 08:52:24 20.5 24 22.3
003A7977 2019-04-08 08:21:17 20.4 24 22.4
003A7977 2019-04-08 07:50:09 20.4 23 22.5
003A7977 2019-04-08 07:19:02 20.4 23 22.5
003A7977 2019-04-08 06:47:53 20.4 23 22.5
003A7977 2019-04-08 06:16:44 20.5 23 22.4
003A7977 2019-04-08 05:45:37 20.5 23 22.3
003A7977 2019-04-08 05:13:54 20.5 23 22.4
003A7977 2019-04-08 04:42:45 20.5 23 22.4
003A7977 2019-04-08 04:11:37 20.6 23 22.4
003A7977 2019-04-08 03:40:29 20.6 23 22.3
003A7977 2019-04-08 03:09:21 20.6 23 22.2
003A7977 2019-04-08 02:38:13 20.6 23 22
003A7977 2019-04-08 02:07:04 20.6 23 22
003A7977 2019-04-08 01:35:54 20.7 23 22.1
003A7977 2019-04-08 01:04:46 20.7 23 22
003A7977 2019-04-08 00:33:37 20.7 23 22
003A7977 2019-04-08 00:02:29 20.7 23 22.1
003A7977 2019-04-07 23:31:23 20.7 23 22.1
003A7977 2019-04-07 23:00:15 20.8 23 21.8
003A7977 2019-04-07 22:29:07 20.8 22 21.7
003A7977 2019-04-07 21:57:58 20.9 22 21.8
003A7977 2019-04-07 21:26:51 21 22 21.7
003A7977 2019-04-07 20:55:41 21 22 21.7
003A7977 2019-04-07 20:24:32 21 22 21.7
003A7977 2019-04-07 19:53:25 21.1 22 21.8
003A7977 2019-04-07 19:22:17 21.1 22 21.7
003A7977 2019-04-07 18:51:09 21.1 22 21.7
003A7977 2019-04-07 18:20:02 21.2 22 22.6
003A7977 2019-04-07 17:48:53 21.1 22 22.5
003A7977 2019-04-07 17:17:45 21.2 22 22.5
003A7977 2019-04-07 16:46:37 21.1 22 22.3
003A7977 2019-04-07 16:15:28 21 22 22.4
003A7977 2019-04-07 15:44:20 20.9 22 22.3
003A7977 2019-04-07 15:13:12 20.8 22 22.2
003A7977 2019-04-07 14:42:06 20.7 22 22
003A7977 2019-04-07 14:10:58 20.6 22 22.1
003A7977 2019-04-07 13:39:52 20.6 22 22.2
003A7977 2019-04-07 13:08:45 20.6 22 22
003A7977 2019-04-07 12:37:38 20.6 22 22
003A7977 2019-04-07 12:06:31 20.6 22 22.2
003A7977 2019-04-07 11:35:24 20.6 21 22
003A7977 2019-04-07 11:04:15 20.6 21 21.9
003A7977 2019-04-07 10:33:06 20.6 21 22
003A7977 2019-04-07 10:01:59 20.5 21 22
003A7977 2019-04-07 09:30:53 20.5 21 22.1
003A7977 2019-04-07 08:59:46 20.5 21 22
003A7977 2019-04-07 08:28:39 20.6 21 22
003A7977 2019-04-07 07:57:32 20.6 21 21.5
003A7977 2019-04-07 07:26:26 20.6 21 21.6
003A7977 2019-04-07 06:55:20 20.6 21 21.7
003A7977 2019-04-07 06:24:13 20.7 21 21.7
003A7977 2019-04-07 05:53:05 20.7 21 20.5
003A7977 2019-04-07 05:21:58 20.8 21 20.7
003A7977 2019-04-07 04:50:51 20.8 21 20.7
003A7977 2019-04-07 04:19:44 20.8 21 20.8
003A7977 2019-04-07 03:48:36 20.8 21 20.7
003A7977 2019-04-07 03:16:48 20.9 21 20.9
003A7977 2019-04-07 02:45:39 20.9 21 22.1
003A7977 2019-04-07 02:14:32 20.9 21 22.1
003A7977 2019-04-07 01:43:24 21 21 22
003A7977 2019-04-07 01:12:15 21.1 21 22
003A7977 2019-04-07 00:41:08 21.1 21 22.8
003A7977 2019-04-07 00:10:01 21.2 21 22.7
003A7977 2019-04-06 23:38:54 21.2 21 22.8
003A7977 2019-04-06 23:07:46 21.3 21 23.6
003A7977 2019-04-06 22:36:38 21.3 21 23.6
003A7977 2019-04-06 22:05:31 21.3 21 23.7
003A7977 2019-04-06 21:34:23 21.4 21 23.7
003A7977 2019-04-06 21:03:16 21.4 21 23.8
003A7977 2019-04-06 20:32:09 21.5 21 23.8
003A7977 2019-04-06 20:01:01 21.5 21 23.8
003A7977 2019-04-06 19:29:54 21.5 21 23.7
003A7977 2019-04-06 18:58:45 21.5 21 23.6
003A7977 2019-04-06 18:27:37 21.5 21 23.6
003A7977 2019-04-06 17:56:29 21.5 21 23.7
003A7977 2019-04-06 17:25:21 21.4 21 23.7
003A7977 2019-04-06 16:54:12 21.4 21 23.7
003A7977 2019-04-06 16:23:04 21.3 21 23.7
003A7977 2019-04-06 15:51:55 21.1 21 23.7
003A7977 2019-04-06 15:20:45 20.9 21 23.8
003A7977 2019-04-06 14:49:36 20.8 21 23.8
003A7977 2019-04-06 14:18:28 20.7 21 23.7
003A7977 2019-04-06 13:47:20 20.7 21 23.7
003A7977 2019-04-06 13:16:11 20.7 21 23.7
003A7977 2019-04-06 12:45:00 20.7 21 23.8
003A7977 2019-04-06 12:13:49 20.7 21 23.8
003A7977 2019-04-06 11:42:40 20.7 21 23.1
003A7977 2019-04-06 11:11:32 20.7 21 23.2
003A7977 2019-04-06 10:40:23 20.7 21 23.3
003A7977 2019-04-06 10:09:15 20.7 21 22.5
003A7977 2019-04-06 09:38:04 20.7 21 22.6
003A7977 2019-04-06 09:06:57 20.6 20 22.5
003A7977 2019-04-06 08:35:48 20.7 20 22.3
003A7977 2019-04-06 08:04:40 20.7 20 22.4
003A7977 2019-04-06 07:33:32 20.7 20 22.4
003A7977 2019-04-06 07:02:24 20.8 20 22.4
003A7977 2019-04-06 06:31:15 20.8 20 22.5
003A7977 2019-04-06 06:00:05 20.9 20 22.7
003A7977 2019-04-06 05:28:56 20.9 20 22.7
003A7977 2019-04-06 04:57:47 21 20 22.8
003A7977 2019-04-06 04:26:37 21 20 22.8
003A7977 2019-04-06 03:55:28 21 20 22.7
003A7977 2019-04-06 03:24:20 21.1 20 22.7
003A7977 2019-04-06 02:53:10 21.1 20 22.6
003A7977 2019-04-06 02:22:00 21.2 20 22.6
003A7977 2019-04-06 01:50:50 21.3 20 22.6
003A7977 2019-04-06 01:19:06 21.3 20 21.8
003A7977 2019-04-06 00:47:57 21.4 20 21.8
003A7977 2019-04-06 00:16:50 21.5 20 22.6
003A7977 2019-04-05 23:45:42 21.5 19 22.7
003A7977 2019-04-05 23:14:34 21.6 19 22.7
003A7977 2019-04-05 22:43:25 21.7 19 22.7
003A7977 2019-04-05 22:12:16 21.8 19 22.6
003A7977 2019-04-05 21:41:08 22 19 22.7
003A7977 2019-04-05 21:10:02 22.1 19 22.6
003A7977 2019-04-05 20:38:55 22 19 22.6
003A7977 2019-04-05 20:07:48 22.1 19 22.7
003A7977 2019-04-05 19:36:40 22.1 19 22.5
003A7977 2019-04-05 19:05:33 22.1 19 22.5
003A7977 2019-04-05 18:34:25 21.9 18 22.7
003A7977 2019-04-05 18:03:19 22 19 22.7
003A7977 2019-04-05 17:32:12 21.9 19 22.7
003A7977 2019-04-05 17:01:08 22 19 22.8
003A7977 2019-04-05 16:29:59 22 20 22.7
003A7977 2019-04-05 15:58:52 21.9 21 22.8
003A7977 2019-04-05 15:27:45 21.7 21 22.9
003A7977 2019-04-05 14:56:36 21.6 22 23
003A7977 2019-04-05 14:25:28 21.5 22 23
003A7977 2019-04-05 13:54:21 21.4 22 23
003A7977 2019-04-05 13:23:14 21.4 22 23.1
003A7977 2019-04-05 12:52:06 21.4 22 23
003A7977 2019-04-05 12:20:59 21.4 22 22.9
003A7977 2019-04-05 11:49:52 21.4 22 23
003A7977 2019-04-05 11:18:43 21.4 22 22.1
003A7977 2019-04-05 10:47:37 21.4 22 22.1
003A7977 2019-04-05 10:16:30 21.3 21 22.2
003A7977 2019-04-05 09:45:24 21.2 21 22.2
003A7977 2019-04-05 09:14:17 21.1 20 22.3
003A7977 2019-04-05 08:43:09 21.1 20 22.2
003A7977 2019-04-05 08:12:01 21.1 19 22.2
003A7977 2019-04-05 07:40:54 21.1 19 22.1
003A7977 2019-04-05 07:09:46 21.2 20 22.1
003A7977 2019-04-05 06:38:38 21.2 20 22.2
003A7977 2019-04-05 06:07:31 21.2 20 22.1
003A7977 2019-04-05 05:36:22 21.2 20 22
003A7977 2019-04-05 05:05:15 21.2 20 21.8
003A7977 2019-04-05 04:34:08 21.2 20 21.6
003A7977 2019-04-05 04:02:59 21.3 20 22.4
003A7977 2019-04-05 03:31:53 21.3 19 22.5
003A7977 2019-04-05 03:00:46 21.3 19 22.4
003A7977 2019-04-05 02:29:38 21.4 19 23.1
003A7977 2019-04-05 01:58:32 21.4 19 23
003A7977 2019-04-05 01:27:25 21.4 19 23
003A7977 2019-04-05 00:56:17 21.5 19 23.1
003A7977 2019-04-05 00:25:10 21.5 19 23.1
003A7977 2019-04-04 23:54:03 21.6 19 23.1
003A7977 2019-04-04 23:22:23 21.6 19 23.2
003A7977 2019-04-04 22:51:16 21.7 19 23.2
003A7977 2019-04-04 22:20:09 21.6 18 23.2
003A7977 2019-04-04 21:49:01 21.7 18 23.9
003A7977 2019-04-04 21:17:53 21.7 18 23.8
003A7977 2019-04-04 20:46:45 21.7 18 23.8
003A7977 2019-04-04 20:15:39 21.7 18 23.8
003A7977 2019-04-04 19:44:31 21.7 18 23.8
003A7977 2019-04-04 19:13:24 21.7 18 23.9
003A7977 2019-04-04 18:42:15 21.7 18 23.9
003A7977 2019-04-04 18:11:08 21.7 18 23.9
003A7977 2019-04-04 17:40:00 21.8 18 24
003A7977 2019-04-04 17:08:53 21.8 18 24
003A7977 2019-04-04 16:37:45 21.8 19 24.1
003A7977 2019-04-04 16:06:37 21.7 19 24.1
003A7977 2019-04-04 15:35:29 21.6 20 23.6
003A7977 2019-04-04 15:04:23 21.5 20 23.5
003A7977 2019-04-04 14:33:15 21.4 20 23.6
003A7977 2019-04-04 14:02:07 21.3 20 22.9
003A7977 2019-04-04 13:30:59 21.3 20 23
003A7977 2019-04-04 12:59:54 21.3 20 23
003A7977 2019-04-04 12:28:46 21.2 20 23
003A7977 2019-04-04 11:57:41 21.2 20 22.9
003A7977 2019-04-04 11:26:34 21.2 20 22.8
003A7977 2019-04-04 10:55:29 21.1 20 22.9
003A7977 2019-04-04 10:24:24 21.1 20 22.8
003A7977 2019-04-04 09:53:18 21.1 20 22.8
003A7977 2019-04-04 09:22:14 21.1 20 22.8
003A7977 2019-04-04 08:51:09 21.1 20 21.8
003A7977 2019-04-04 08:20:05 21.1 20 21.7
003A7977 2019-04-04 07:48:57 21.1 20 21.8
003A7977 2019-04-04 07:17:50 21.1 20 21.7
003A7977 2019-04-04 06:46:43 21.2 20 21.7
003A7977 2019-04-04 06:15:37 21.2 20 21.4
003A7977 2019-04-04 05:44:31 21.2 20 21.4
003A7977 2019-04-04 05:13:25 21.2 20 21.2
003A7977 2019-04-04 04:42:18 21.3 20 21.1
003A7977 2019-04-04 04:11:11 21.3 20 21
003A7977 2019-04-04 03:40:02 21.3 20 21
003A7977 2019-04-04 03:08:56 21.4 20 21
003A7977 2019-04-04 02:37:48 21.4 20 21
003A7977 2019-04-04 02:06:40 21.4 20 21
003A7977 2019-04-04 01:35:32 21.4 20 21
003A7977 2019-04-04 01:04:24 21.5 20 21
003A7977 2019-04-04 00:33:16 21.6 20 20.8
003A7977 2019-04-04 00:02:10 21.6 20 20.7
003A7977 2019-04-03 23:31:05 21.7 20 21.7
003A7977 2019-04-03 22:59:59 21.7 19 21.8
003A7977 2019-04-03 22:28:53 21.7 19 21.9
003A7977 2019-04-03 21:57:48 21.8 19 21.9
003A7977 2019-04-03 21:26:09 21.8 19 21.9
003A7977 2019-04-03 20:55:03 21.8 19 22
003A7977 2019-04-03 20:23:57 21.8 19 22.1
003A7977 2019-04-03 19:52:51 21.8 19 22.1
003A7977 2019-04-03 19:21:45 21.8 19 22.1
003A7977 2019-04-03 18:50:39 21.8 19 22.2
003A7977 2019-04-03 18:19:34 21.9 19 22.3
003A7977 2019-04-03 17:48:29 22 19 22.4
003A7977 2019-04-03 17:17:23 22.1 20 22.5
003A7977 2019-04-03 16:46:17 22.1 20 22.6
003A7977 2019-04-03 16:15:12 22 21 22.8
003A7977 2019-04-03 15:44:07 21.8 21 22.9
003A7977 2019-04-03 15:13:02 21.7 21 22.8
003A7977 2019-04-03 14:41:57 21.5 21 22.8
003A7977 2019-04-03 14:10:51 21.5 21 22.6
003A7977 2019-04-03 13:39:45 21.4 21 22.7
003A7977 2019-04-03 13:08:39 21.3 21 22.7
003A7977 2019-04-03 12:37:34 21.3 21 22.6
003A7977 2019-04-03 12:06:27 21.3 21 22.6
003A7977 2019-04-03 11:35:22 21.3 21 22.7
003A7977 2019-04-03 11:04:17 21.2 21 21.8
003A7977 2019-04-03 10:33:12 21.2 21 21.8
003A7977 2019-04-03 10:02:08 21.2 21 21.8
003A7977 2019-04-03 09:31:02 21 20 21.9
003A7977 2019-04-03 08:59:57 20.9 20 21.9
003A7977 2019-04-03 08:28:51 20.9 20 21.9
003A7977 2019-04-03 07:57:44 20.9 20 21.8
003A7977 2019-04-03 07:26:37 21 20 21.7
003A7977 2019-04-03 06:55:32 20.9 20 21.9
003A7977 2019-04-03 06:24:26 20.9 20 21.9
003A7977 2019-04-03 05:53:21 21 20 21.8
003A7977 2019-04-03 05:22:15 21 20 21.7
003A7977 2019-04-03 04:51:09 21 20 21.5
003A7977 2019-04-03 04:20:03 21 20 21.5
003A7977 2019-04-03 03:48:57 21.1 20 21.5
003A7977 2019-04-03 03:17:51 21.1 20 21.3
003A7977 2019-04-03 02:46:45 21.1 20 22.2
003A7977 2019-04-03 02:15:39 21.1 19 22.3
003A7977 2019-04-03 01:44:34 21.1 19 22.3
003A7977 2019-04-03 01:13:29 21.2 19 22.4
003A7977 2019-04-03 00:42:23 21.2 19 22.3
003A7977 2019-04-03 00:11:16 21.3 19 22.3
003A7977 2019-04-02 23:40:10 21.3 19 22.3
003A7977 2019-04-02 23:09:04 21.4 18 22.3
003A7977 2019-04-02 22:37:58 21.4 18 22.3
003A7977 2019-04-02 22:06:52 21.4 18 22.4
003A7977 2019-04-02 21:35:46 21.5 18 22.3
003A7977 2019-04-02 21:04:40 21.5 18 22.3
003A7977 2019-04-02 20:33:33 21.5 18 22.3
003A7977 2019-04-02 20:02:25 21.5 18 22.3
003A7977 2019-04-02 19:30:34 21.5 18 22.3
003A7977 2019-04-02 18:59:26 21.5 17 22.3
003A7977 2019-04-02 18:28:19 21.5 17 22.3
003A7977 2019-04-02 17:57:11 21.6 17 22.2
003A7977 2019-04-02 17:26:04 21.7 18 22.2
003A7977 2019-04-02 16:54:58 21.8 19 22.2
003A7977 2019-04-02 16:23:52 21.8 20 22.2
003A7977 2019-04-02 15:52:42 21.7 21 22.3
003A7977 2019-04-02 15:21:34 21.5 22 23.1
003A7977 2019-04-02 14:50:26 21.4 23 23.2
003A7977 2019-04-02 14:19:18 21.2 23 23.3
003A7977 2019-04-02 13:48:11 21.1 23 22.5
003A7977 2019-04-02 13:17:04 21 23 22.5
003A7977 2019-04-02 12:45:57 21 23 22.5
003A7977 2019-04-02 12:14:48 21 23 22.5
003A7977 2019-04-02 11:43:40 21 23 22.6
003A7977 2019-04-02 11:12:33 21 23 22.6
003A7977 2019-04-02 10:41:25 21 22 22.7
003A7977 2019-04-02 10:10:17 20.9 22 22.7
003A7977 2019-04-02 09:39:10 20.9 22 22.6
003A7977 2019-04-02 09:08:01 20.9 21 23.3
003A7977 2019-04-02 08:36:55 20.8 21 23.4
003A7977 2019-04-02 08:05:47 20.8 20 23.4
003A7977 2019-04-02 07:34:40 20.8 20 23.4
003A7977 2019-04-02 07:03:32 20.8 20 23.4
003A7977 2019-04-02 06:32:27 20.8 20 23.3
003A7977 2019-04-02 06:01:20 20.9 20 23.3
003A7977 2019-04-02 05:30:12 20.8 20 23.3
003A7977 2019-04-02 04:59:05 20.9 19 23.2
003A7977 2019-04-02 04:27:58 20.9 19 23.8
003A7977 2019-04-02 03:56:51 20.9 19 23.8
003A7977 2019-04-02 03:25:42 20.9 19 23.8
003A7977 2019-04-02 02:54:36 21 19 23.8
003A7977 2019-04-02 02:23:31 21 19 23.1
003A7977 2019-04-02 01:52:24 21 18 23
003A7977 2019-04-02 01:21:17 21.1 18 23
003A7977 2019-04-02 00:50:09 21.1 18 22.9
003A7977 2019-04-02 00:19:03 21.1 18 22.9
003A7977 2019-04-01 23:47:56 21.2 17 23
003A7977 2019-04-01 23:16:50 21.2 17 23.1
003A7977 2019-04-01 22:45:42 21.2 17 22.9
003A7977 2019-04-01 22:14:36 21.3 17 22.9
003A7977 2019-04-01 21:43:29 21.3 17 22.9
003A7977 2019-04-01 21:12:22 21.4 16 23
003A7977 2019-04-01 20:41:14 21.4 16 23
003A7977 2019-04-01 20:10:06 21.4 16 22.2
003A7977 2019-04-01 19:38:58 21.4 16 22.1
003A7977 2019-04-01 19:07:50 21.3 16 22.1
003A7977 2019-04-01 18:36:42 21.3 15 22.1
003A7977 2019-04-01 18:05:34 21.4 16 22.1
003A7977 2019-04-01 17:33:53 21.4 16 22.3
003A7977 2019-04-01 17:02:47 21.4 16 22.4
003A7977 2019-04-01 16:31:40 21.4 17 22.4
003A7977 2019-04-01 16:00:33 21.2 17 21.7
003A7977 2019-04-01 15:29:26 21 18 21.7
003A7977 2019-04-01 14:58:18 20.9 18 21.8
003A7977 2019-04-01 14:27:11 20.8 19 21.9
003A7977 2019-04-01 13:56:04 20.8 19 22
003A7977 2019-04-01 13:24:57 20.7 19 21.9
003A7977 2019-04-01 12:53:50 20.7 20 22
003A7977 2019-04-01 12:22:41 20.7 20 22.1
003A7977 2019-04-01 11:51:34 20.7 21 22.1
003A7977 2019-04-01 11:20:27 20.7 21 22
003A7977 2019-04-01 10:49:19 20.7 21 21.9
003A7977 2019-04-01 10:18:12 20.7 22 22
003A7977 2019-04-01 09:47:05 20.7 22 22
003A7977 2019-04-01 09:15:58 20.7 22 22.1
003A7977 2019-04-01 08:44:51 20.6 22 22.1
003A7977 2019-04-01 08:13:43 20.6 22 22.1
003A7977 2019-04-01 07:42:35 20.6 22 22.2
003A7977 2019-04-01 07:11:26 20.6 22 22.3
003A7977 2019-04-01 06:40:17 20.6 23 22.2
003A7977 2019-04-01 06:09:08 20.6 23 22.3
003A7977 2019-04-01 05:37:59 20.6 23 22.3
003A7977 2019-04-01 05:06:50 20.6 23 22
003A7977 2019-04-01 04:35:41 20.6 23 22
003A7977 2019-04-01 04:04:33 20.6 23 21.9
003A7977 2019-04-01 03:33:25 20.6 23 22
003A7977 2019-04-01 03:02:19 20.6 23 21.8
003A7977 2019-04-01 02:31:13 20.7 23 22
003A7977 2019-04-01 02:00:08 20.7 23 22.1
003A7977 2019-04-01 01:29:02 20.7 24 21.9
003A7977 2019-04-01 00:57:54 20.7 24 22
003A7977 2019-04-01 00:26:46 20.7 24 22.1
003A7977 2019-03-31 23:55:39 20.7 24 22.1
003A7977 2019-03-31 23:24:30 20.8 24 22.1
003A7977 2019-03-31 22:53:22 20.8 25 22
003A7977 2019-03-31 22:22:15 20.9 25 22
003A7977 2019-03-31 21:51:08 20.9 26 22.1
003A7977 2019-03-31 21:20:02 21 26 22.1
003A7977 2019-03-31 20:48:55 21 26 22
003A7977 2019-03-31 20:17:48 21 27 22
003A7977 2019-03-31 19:46:41 21 27 22.2
003A7977 2019-03-31 19:15:34 21 27 22.3
003A7977 2019-03-31 18:44:27 20.9 28 22.3
003A7977 2019-03-31 18:13:20 20.9 28 22.2
003A7977 2019-03-31 17:42:13 20.8 28 22.2
003A7977 2019-03-31 17:11:05 20.8 28 22.2
003A7977 2019-03-31 16:39:59 20.7 28 22.3
003A7977 2019-03-31 16:08:54 20.7 28 22.4
003A7977 2019-03-31 15:37:15 20.7 28 22.5
003A7977 2019-03-31 15:06:10 20.7 28 22.5
003A7977 2019-03-31 14:35:04 20.7 28 22.5
003A7977 2019-03-31 14:03:58 20.7 28 22.4
003A7977 2019-03-31 13:32:52 20.7 28 22.5
003A7977 2019-03-31 13:01:46 20.7 28 22.4
003A7977 2019-03-31 12:30:37 20.7 28 22.2
003A7977 2019-03-31 11:59:31 20.7 28 22.3
003A7977 2019-03-31 11:28:25 20.7 27 22.2
003A7977 2019-03-31 10:57:18 20.7 28 22.4
003A7977 2019-03-31 10:26:13 20.7 28 22.3
003A7977 2019-03-31 09:55:07 20.7 28 22.4
003A7977 2019-03-31 09:24:00 20.7 28 22.4
003A7977 2019-03-31 08:52:53 20.7 28 22.3
003A7977 2019-03-31 08:21:47 20.7 28 22.4
003A7977 2019-03-31 07:50:40 20.7 28 22.5
003A7977 2019-03-31 07:19:31 20.7 28 22.3
003A7977 2019-03-31 06:48:25 20.7 28 23
003A7977 2019-03-31 06:17:17 20.7 28 23
003A7977 2019-03-31 05:46:11 20.7 28 22.9
003A7977 2019-03-31 05:15:05 20.7 28 23
003A7977 2019-03-31 04:43:59 20.8 28 23
003A7977 2019-03-31 04:12:52 20.8 28 23.1
003A7977 2019-03-31 02:41:46 20.7 28 23.1
003A7977 2019-03-31 02:10:40 20.7 28 23
003A7977 2019-03-31 01:39:32 20.7 28 23.1
003A7977 2019-03-31 01:08:25 20.8 28 23.1
003A7977 2019-03-31 00:37:18 20.8 28 23.1
003A7977 2019-03-31 00:06:11 20.8 28 23.1
003A7977 2019-03-30 23:35:04 20.8 27 22.9
003A7977 2019-03-30 23:03:57 20.8 27 22.9
003A7977 2019-03-30 22:32:51 20.9 27 23.1
003A7977 2019-03-30 22:01:44 20.9 27 23.1
003A7977 2019-03-30 21:30:37 20.9 27 23.1
003A7977 2019-03-30 20:59:30 20.9 27 22.9
003A7977 2019-03-30 20:28:23 21 27 22.9
003A7977 2019-03-30 19:57:17 21 27 23
003A7977 2019-03-30 19:26:09 21 27 23
003A7977 2019-03-30 18:55:03 21.1 27 23.1
003A7977 2019-03-30 18:23:56 21.1 27 22.9
003A7977 2019-03-30 17:52:49 21.1 27 22.9
003A7977 2019-03-30 17:21:42 21.1 27 23
003A7977 2019-03-30 16:50:36 21.1 27 22.1
003A7977 2019-03-30 16:19:29 21.1 27 22.1
003A7977 2019-03-30 15:48:22 21.1 27 22.2
003A7977 2019-03-30 15:17:15 21.1 27 22.2
003A7977 2019-03-30 14:46:08 21 27 22.2
003A7977 2019-03-30 14:15:04 21 27 22
003A7977 2019-03-30 13:43:56 21 27 21.9
003A7977 2019-03-30 13:12:49 21 27 21.9
003A7977 2019-03-30 12:41:07 20.9 27 22
003A7977 2019-03-30 12:09:59 20.9 27 22
003A7977 2019-03-30 11:38:50 20.9 27 22.1
003A7977 2019-03-30 11:07:40 20.8 27 22.1
003A7977 2019-03-30 10:36:32 20.8 27 22.2
003A7977 2019-03-30 10:05:25 20.8 27 22.1
003A7977 2019-03-30 09:34:18 20.8 27 22
003A7977 2019-03-30 09:03:11 20.8 27 21.9
003A7977 2019-03-30 08:32:05 20.8 27 22
003A7977 2019-03-30 08:00:57 20.8 27 22
003A7977 2019-03-30 07:29:51 20.8 27 21.9
003A7977 2019-03-30 06:58:44 20.8 27 21.9
003A7977 2019-03-30 06:27:37 20.8 28 21.8
003A7977 2019-03-30 05:56:31 20.8 28 21.9
003A7977 2019-03-30 05:25:24 20.8 28 22
003A7977 2019-03-30 04:54:17 20.8 28 21.9
003A7977 2019-03-30 04:23:10 20.9 28 21.9
003A7977 2019-03-30 03:52:02 20.9 28 21.8
003A7977 2019-03-30 03:20:56 20.9 28 21.8
003A7977 2019-03-30 02:49:49 20.9 28 21.7
003A7977 2019-03-30 02:18:43 20.9 28 21.8
003A7977 2019-03-30 01:47:36 21 28 22
003A7977 2019-03-30 01:16:30 21 28 22.1
003A7977 2019-03-30 00:45:23 21 28 22.2
003A7977 2019-03-30 00:14:17 21 28 22.1
003A7977 2019-03-29 23:43:11 21.1 28 22
003A7977 2019-03-29 23:12:04 21.1 28 21.9
003A7977 2019-03-29 22:40:56 21.1 29 22
003A7977 2019-03-29 22:09:50 21.2 29 21.8
003A7977 2019-03-29 21:38:43 21.2 29 21.9
003A7977 2019-03-29 21:07:36 21.2 29 21.9
003A7977 2019-03-29 20:36:29 21.2 29 21.8
003A7977 2019-03-29 20:05:21 21.2 29 21.8
003A7977 2019-03-29 19:34:15 21.1 29 21.7
003A7977 2019-03-29 19:03:09 21.1 29 21.7
003A7977 2019-03-29 18:32:03 21.1 29 21.7
003A7977 2019-03-29 18:00:55 21.2 29 21.6
003A7977 2019-03-29 17:29:48 21.2 29 21.7
003A7977 2019-03-29 16:58:39 21.3 29 21.6
003A7977 2019-03-29 16:27:32 21.3 29 21.5
003A7977 2019-03-29 15:56:26 21.3 29 21.4
003A7977 2019-03-29 15:25:20 21.3 28 21.4
003A7977 2019-03-29 14:54:13 21.3 28 21.5
003A7977 2019-03-29 14:23:09 21.3 28 21.3
003A7977 2019-03-29 13:52:03 21.3 28 21.4
003A7977 2019-03-29 13:20:57 21.2 28 21.1
003A7977 2019-03-29 12:49:49 21.1 28 20.9
003A7977 2019-03-29 12:18:44 21.1 28 20.8
003A7977 2019-03-29 11:47:37 21.1 28 20.6
003A7977 2019-03-29 11:16:31 21.2 28 20.5
003A7977 2019-03-29 10:44:51 21.2 28 20.6
003A7977 2019-03-29 10:13:44 21.1 27 20.5
003A7977 2019-03-29 09:42:37 21.1 27 20.7
003A7977 2019-03-29 09:11:31 21 26 20.6
003A7977 2019-03-29 08:40:24 21 26 20.7
003A7977 2019-03-29 08:09:18 20.9 26 20.9
003A7977 2019-03-29 07:38:13 20.8 25 21.1
003A7977 2019-03-29 07:07:08 20.8 25 21.2
003A7977 2019-03-29 06:36:02 20.8 25 21.2
003A7977 2019-03-29 06:04:57 20.9 25 21.2
003A7977 2019-03-29 05:33:50 20.9 25 21.1
003A7977 2019-03-29 05:02:45 20.9 25 20.9
003A7977 2019-03-29 04:31:38 21 25 21
003A7977 2019-03-29 04:00:29 21 25 21.2
003A7977 2019-03-29 03:29:20 21.1 25 21.1
003A7977 2019-03-29 02:58:13 21.1 25 21.2
003A7977 2019-03-29 02:27:07 21.2 25 21.2
003A7977 2019-03-29 01:56:00 21.2 25 21.2
003A7977 2019-03-29 01:24:55 21.2 25 21.2
003A7977 2019-03-29 00:53:49 21.2 25 22.3
003A7977 2019-03-29 00:22:44 21.2 25 22.4
003A7977 2019-03-28 23:51:38 21.2 25 22.4
003A7977 2019-03-28 23:20:32 21.2 25 22.4
003A7977 2019-03-28 22:49:27 21.2 25 22.4
003A7977 2019-03-28 22:18:19 21.2 25 22.4
003A7977 2019-03-28 21:47:12 21.3 25 22.3
003A7977 2019-03-28 21:16:05 21.3 25 22.4
003A7977 2019-03-28 20:44:59 21.3 25 22.3
003A7977 2019-03-28 20:13:51 21.3 25 22.2
003A7977 2019-03-28 19:42:44 21.3 25 22.2
003A7977 2019-03-28 19:11:37 21.3 25 22.2
003A7977 2019-03-28 18:40:31 21.3 24 22.1
003A7977 2019-03-28 18:09:24 21.3 24 22.1
003A7977 2019-03-28 17:38:16 21.3 24 22.2
003A7977 2019-03-28 17:07:09 21.4 24 22.3
003A7977 2019-03-28 16:36:01 21.4 24 22.4
003A7977 2019-03-28 16:04:53 21.3 24 22.6
003A7977 2019-03-28 15:33:46 21.3 24 22.5
003A7977 2019-03-28 15:02:39 21.3 24 22.5
003A7977 2019-03-28 14:31:33 21.3 24 22.6
003A7977 2019-03-28 14:00:25 21.2 23 22.6
003A7977 2019-03-28 13:29:19 21.2 23 22.6
003A7977 2019-03-28 12:58:11 21.1 23 22.8
003A7977 2019-03-28 12:27:04 21.1 22 22.8
003A7977 2019-03-28 11:55:55 21.1 22 22
003A7977 2019-03-28 11:24:46 21.1 22 22
003A7977 2019-03-28 10:53:37 21.1 22 22
003A7977 2019-03-28 10:22:29 21 21 21.8
003A7977 2019-03-28 09:51:22 21 21 21.9
003A7977 2019-03-28 09:20:15 21 21 22.1
003A7977 2019-03-28 08:48:34 20.9 20 22.2
003A7977 2019-03-28 08:17:27 20.9 20 22.1
003A7977 2019-03-28 07:46:20 20.9 20 22.1
003A7977 2019-03-28 07:15:11 20.8 20 22.2
003A7977 2019-03-28 06:44:03 20.8 20 22.1
003A7977 2019-03-28 06:12:55 20.8 20 22
003A7977 2019-03-28 05:41:47 20.9 20 22
003A7977 2019-03-28 05:10:39 20.9 20 22
003A7977 2019-03-28 04:39:33 20.9 19 22
003A7977 2019-03-28 04:08:26 20.9 19 22
003A7977 2019-03-28 03:37:20 20.9 19 22
003A7977 2019-03-28 03:06:14 20.9 19 21.9
003A7977 2019-03-28 02:35:07 20.9 19 21.8
003A7977 2019-03-28 02:04:00 20.9 19 21.8
003A7977 2019-03-28 01:32:52 20.9 18 22.6
003A7977 2019-03-28 01:01:46 21 18 23.4
003A7977 2019-03-28 00:30:40 21 18 24
003A7977 2019-03-27 23:59:34 21 18 24
003A7977 2019-03-27 23:28:27 21 17 24
003A7977 2019-03-27 22:57:21 21 17 24
003A7977 2019-03-27 22:26:15 21.1 17 24
003A7977 2019-03-27 21:55:08 21.1 16 24.1
003A7977 2019-03-27 21:24:00 21.1 16 24
003A7977 2019-03-27 20:52:54 21.1 16 24
003A7977 2019-03-27 20:21:47 21.2 16 24.1
003A7977 2019-03-27 19:50:42 21.2 16 24
003A7977 2019-03-27 19:19:36 21.2 16 24.2
003A7977 2019-03-27 18:48:29 21.3 16 24.1
003A7977 2019-03-27 18:17:24 21.4 16 24.1
003A7977 2019-03-27 17:46:18 21.4 16 24.2
003A7977 2019-03-27 17:15:10 21.4 16 24.3
003A7977 2019-03-27 16:44:04 21.5 16 24.4
003A7977 2019-03-27 16:12:58 21.6 16 24.3
003A7977 2019-03-27 15:41:51 21.6 16 24.3
003A7977 2019-03-27 15:10:45 21.5 16 24.2
003A7977 2019-03-27 14:39:39 21.4 16 24.1
003A7977 2019-03-27 14:08:33 21.2 16 24.3
003A7977 2019-03-27 13:37:26 21.1 16 24.3
003A7977 2019-03-27 13:06:20 21.1 16 24.2
003A7977 2019-03-27 12:35:12 21 15 23.5
003A7977 2019-03-27 12:04:06 21 15 22.7
003A7977 2019-03-27 11:33:01 20.9 15 21.9
003A7977 2019-03-27 11:01:55 20.8 15 21.8
003A7977 2019-03-27 10:30:49 20.8 15 21.8
003A7977 2019-03-27 09:59:42 20.8 15 21.8
003A7977 2019-03-27 09:28:36 20.8 15 22.7
003A7977 2019-03-27 08:57:30 20.7 14 23.4
003A7977 2019-03-27 08:26:23 20.7 14 23.4
003A7977 2019-03-27 07:55:17 20.7 14 23.4
003A7977 2019-03-27 07:24:09 20.7 14 23.3
003A7977 2019-03-27 06:52:29 20.7 14 23.2
003A7977 2019-03-27 06:21:20 20.7 14 23.1
003A7977 2019-03-27 05:50:12 20.7 14 23
003A7977 2019-03-27 05:19:03 20.8 14 22.9
003A7977 2019-03-27 04:47:54 20.8 14 22.7
003A7977 2019-03-27 04:16:45 20.8 14 22.6
003A7977 2019-03-27 03:45:38 20.8 14 22.5
003A7977 2019-03-27 03:14:30 20.8 14 22.4
003A7977 2019-03-27 02:43:22 20.8 14 22.5
003A7977 2019-03-27 02:12:14 20.8 14 22.6
003A7977 2019-03-27 01:41:06 20.9 14 22.5
003A7977 2019-03-27 01:09:59 20.9 14 22.4
003A7977 2019-03-27 00:38:51 20.9 14 22.4
003A7977 2019-03-27 00:07:44 21 14 22.4
003A7977 2019-03-26 23:36:38 21 14 22.5
003A7977 2019-03-26 23:05:32 21.1 14 22.5
003A7977 2019-03-26 22:34:26 21.1 13 22.5
003A7977 2019-03-26 22:03:19 21.2 13 22.3
003A7977 2019-03-26 21:32:11 21.2 13 22.4
003A7977 2019-03-26 21:01:04 21.3 13 21.5
003A7977 2019-03-26 20:29:56 21.3 13 21.5
003A7977 2019-03-26 19:58:47 21.3 13 21.4
003A7977 2019-03-26 19:27:37 21.3 13 21.4
003A7977 2019-03-26 18:56:32 21.3 13 21.4
003A7977 2019-03-26 18:25:23 21.4 12 21.3
003A7977 2019-03-26 17:54:15 21.5 13 21.3
003A7977 2019-03-26 17:23:08 21.5 13 21.5
003A7977 2019-03-26 16:52:03 21.6 13 21.7
003A7977 2019-03-26 16:20:54 21.6 13 21.7
003A7977 2019-03-26 15:49:46 21.6 14 21.7
003A7977 2019-03-26 15:18:38 21.5 14 21.9
003A7977 2019-03-26 14:47:31 21.3 14 22.1
003A7977 2019-03-26 14:16:22 21.1 15 22.1
003A7977 2019-03-26 13:45:15 21 15 22
003A7977 2019-03-26 13:14:07 21 15 22
003A7977 2019-03-26 12:42:59 20.8 15 21.9
003A7977 2019-03-26 12:11:52 20.7 15 22
003A7977 2019-03-26 11:40:46 20.7 16 22.1
003A7977 2019-03-26 11:09:38 20.7 16 22.2
003A7977 2019-03-26 10:38:33 20.7 17 22
003A7977 2019-03-26 10:07:26 20.7 17 21.9
003A7977 2019-03-26 09:36:18 20.7 18 22
003A7977 2019-03-26 09:05:12 20.7 18 22.1
003A7977 2019-03-26 08:34:04 20.7 19 22.1
003A7977 2019-03-26 08:02:58 20.7 19 22
003A7977 2019-03-26 07:31:52 20.6 20 22
003A7977 2019-03-26 07:00:45 20.7 20 21.9
003A7977 2019-03-26 06:29:39 20.7 20 21.9
003A7977 2019-03-26 05:58:33 20.7 20 21.9
003A7977 2019-03-26 05:27:27 20.7 20 21.9
003A7977 2019-03-26 04:55:37 20.7 20 21.9
003A7977 2019-03-26 04:24:30 20.7 20 21.9
003A7977 2019-03-26 03:53:22 20.7 20 21.8
003A7977 2019-03-26 03:22:16 20.7 20 21.7
003A7977 2019-03-26 02:51:10 20.7 20 21.7
003A7977 2019-03-26 02:20:02 20.7 20 21.6
003A7977 2019-03-26 01:48:54 20.7 20 21.6
003A7977 2019-03-26 01:17:47 20.7 20 22.6
003A7977 2019-03-26 00:46:42 20.8 20 22.5
003A7977 2019-03-26 00:15:36 20.7 20 22.5
003A7977 2019-03-25 23:44:30 20.8 20 22.7
003A7977 2019-03-25 23:13:23 20.8 20 22.7
003A7977 2019-03-25 22:42:17 20.9 20 22.8
003A7977 2019-03-25 22:11:12 21 20 22.8
003A7977 2019-03-25 21:40:06 20.9 20 22.9
003A7977 2019-03-25 21:09:00 21 20 23
003A7977 2019-03-25 20:37:53 21 20 23
003A7977 2019-03-25 20:06:46 21 20 23.1
003A7977 2019-03-25 19:35:39 21 19 23
003A7977 2019-03-25 19:04:31 21 19 23.1
003A7977 2019-03-25 18:33:22 21 20 22.3
003A7977 2019-03-25 18:02:13 21.1 20 22.4
003A7977 2019-03-25 17:31:05 21.2 21 22.4
003A7977 2019-03-25 16:59:56 21.2 22 22.4
003A7977 2019-03-25 16:28:48 21.2 23 22.5
003A7977 2019-03-25 15:57:41 21.2 23 22.4
003A7977 2019-03-25 15:26:35 21.1 24 22.5
003A7977 2019-03-25 14:55:28 21.2 24 22.4
003A7977 2019-03-25 14:24:21 21.2 24 22.5
003A7977 2019-03-25 13:53:13 21.2 24 22.5
003A7977 2019-03-25 13:22:06 21.1 24 22.6
003A7977 2019-03-25 12:50:58 21 24 22.6
003A7977 2019-03-25 12:19:52 20.8 23 21.7
003A7977 2019-03-25 11:48:45 20.9 24 21.7
003A7977 2019-03-25 11:17:38 20.9 24 21.8
003A7977 2019-03-25 10:46:30 20.8 24 22.6
003A7977 2019-03-25 10:15:22 20.7 24 22.6
003A7977 2019-03-25 09:44:14 20.5 24 22.5
003A7977 2019-03-25 09:13:06 20.4 23 22.5
003A7977 2019-03-25 08:41:57 20.3 23 22.5
003A7977 2019-03-25 08:10:50 20.3 23 22.6
003A7977 2019-03-25 07:39:40 20.3 23 22.5
003A7977 2019-03-25 07:08:33 20.3 23 22.5
003A7977 2019-03-25 06:37:25 20.3 23 22.6
003A7977 2019-03-25 06:06:19 20.3 23 22.6
003A7977 2019-03-25 05:35:11 20.4 23 22.6
003A7977 2019-03-25 05:04:05 20.3 23 22.6
003A7977 2019-03-25 04:32:57 20.4 23 22.6
003A7977 2019-03-25 04:01:50 20.4 23 22.5
003A7977 2019-03-25 03:30:44 20.4 23 22.6
003A7977 2019-03-25 02:59:03 20.4 23 22.4
003A7977 2019-03-25 02:27:55 20.4 23 22.5
003A7977 2019-03-25 01:56:47 20.5 23 22.5
003A7977 2019-03-25 01:25:38 20.5 23 22.5
003A7977 2019-03-25 00:54:29 20.5 23 22.5
003A7977 2019-03-25 00:23:22 20.6 23 22.5
003A7977 2019-03-24 23:52:15 20.6 23 22.7
003A7977 2019-03-24 23:21:08 20.7 23 22.8
003A7977 2019-03-24 22:50:01 20.7 23 22.7
003A7977 2019-03-24 22:18:54 20.8 23 21.9
003A7977 2019-03-24 21:47:46 20.8 23 21.9
003A7977 2019-03-24 21:16:38 20.9 23 22
003A7977 2019-03-24 20:45:29 20.9 23 22
003A7977 2019-03-24 20:14:22 21 23 22
003A7977 2019-03-24 19:43:16 21 23 22
003A7977 2019-03-24 19:12:09 21.1 23 22
003A7977 2019-03-24 18:41:03 21.1 23 22
003A7977 2019-03-24 18:09:55 21.1 23 22
003A7977 2019-03-24 17:38:47 21.2 23 21.9
003A7977 2019-03-24 17:07:40 21.1 23 21.9
003A7977 2019-03-24 16:36:32 21.1 23 21.8
003A7977 2019-03-24 16:05:26 21.1 24 22
003A7977 2019-03-24 15:34:20 21 24 22.1
003A7977 2019-03-24 15:03:14 20.8 24 22
003A7977 2019-03-24 14:32:07 20.5 24 22.1
003A7977 2019-03-24 14:01:02 20.4 24 22.1
003A7977 2019-03-24 13:29:56 20.4 24 22.1
003A7977 2019-03-24 12:58:49 20.4 24 22.1
003A7977 2019-03-24 12:27:44 20.4 24 22
003A7977 2019-03-24 11:56:37 20.3 24 22
003A7977 2019-03-24 11:25:31 20.3 24 22
003A7977 2019-03-24 10:54:25 20.4 24 22
003A7977 2019-03-24 10:23:20 20.3 24 22.1
003A7977 2019-03-24 09:52:14 20.3 24 22.1
003A7977 2019-03-24 09:21:07 20.3 24 22.2
003A7977 2019-03-24 08:50:01 20.3 24 22.1
003A7977 2019-03-24 08:18:54 20.3 24 21.9
003A7977 2019-03-24 07:47:47 20.3 24 21.8
003A7977 2019-03-24 07:16:40 20.3 24 21.8
003A7977 2019-03-24 06:45:31 20.3 24 21.7
003A7977 2019-03-24 06:14:22 20.3 24 21.7
003A7977 2019-03-24 05:43:15 20.3 24 21.7
003A7977 2019-03-24 05:12:08 20.3 24 21.8
003A7977 2019-03-24 04:41:01 20.3 24 21.8
003A7977 2019-03-24 04:09:53 20.4 24 21.7
003A7977 2019-03-24 03:38:47 20.3 23 21.9
003A7977 2019-03-24 03:07:40 20.3 23 21.7
003A7977 2019-03-24 02:36:34 20.3 23 21.8
003A7977 2019-03-24 02:05:27 20.3 23 21.8
003A7977 2019-03-24 01:34:20 20.3 23 21.7
003A7977 2019-03-24 01:02:37 20.4 23 21.7
003A7977 2019-03-24 00:31:31 20.4 23 21.7
003A7977 2019-03-24 00:00:24 20.4 23 21.7
003A7977 2019-03-23 23:29:19 20.4 23 21.5
003A7977 2019-03-23 22:58:12 20.4 23 21.4
003A7977 2019-03-23 22:27:05 20.4 23 21.4
003A7977 2019-03-23 21:56:00 20.4 23 21
003A7977 2019-03-23 21:24:53 20.4 23 21
003A7977 2019-03-23 20:53:47 20.4 23 20.9
003A7977 2019-03-23 20:22:39 20.4 22 20.9
003A7977 2019-03-23 19:51:32 20.4 22 21
003A7977 2019-03-23 19:20:26 20.5 22 21
003A7977 2019-03-23 18:49:20 20.5 22 21
003A7977 2019-03-23 18:18:16 20.5 22 21
003A7977 2019-03-23 17:47:09 20.5 22 20.9
003A7977 2019-03-23 17:16:04 20.5 22 20.9
003A7977 2019-03-23 16:44:56 20.5 22 20.6
003A7977 2019-03-23 16:13:49 20.4 21 20.5
003A7977 2019-03-23 15:42:43 20.4 21 20.6
003A7977 2019-03-23 15:11:36 20.4 21 20.3
003A7977 2019-03-23 14:40:31 20.5 21 20.4
003A7977 2019-03-23 14:09:24 20.5 21 20.2
003A7977 2019-03-23 13:38:17 20.5 21 20.5
003A7977 2019-03-23 13:07:08 20.5 21 20.6
003A7977 2019-03-23 12:36:00 20.5 21 20.8
003A7977 2019-03-23 12:04:52 20.5 21 20.8
003A7977 2019-03-23 11:33:45 20.5 21 20.9
003A7977 2019-03-23 11:02:36 20.5 21 20.9
003A7977 2019-03-23 10:31:27 20.5 21 21.2
003A7977 2019-03-23 10:00:19 20.5 21 21.2
003A7977 2019-03-23 09:29:11 20.5 20 21.2
003A7977 2019-03-23 08:58:05 20.5 20 21.3
003A7977 2019-03-23 08:26:57 20.6 20 21.3
003A7977 2019-03-23 07:55:50 20.5 20 21.4
003A7977 2019-03-23 07:24:43 20.5 20 21.4
003A7977 2019-03-23 06:53:36 20.5 20 22.4
003A7977 2019-03-23 06:22:29 20.6 20 22.4
003A7977 2019-03-23 05:51:23 20.6 20 22.5
003A7977 2019-03-23 05:20:16 20.6 20 22.5
003A7977 2019-03-23 04:49:10 20.6 20 22.7
003A7977 2019-03-23 04:18:04 20.6 19 22.6
003A7977 2019-03-23 03:46:56 20.7 19 22.7
003A7977 2019-03-23 03:15:48 20.7 19 22.7
003A7977 2019-03-23 02:44:41 20.7 19 22.7
003A7977 2019-03-23 02:13:34 20.8 19 22.9
003A7977 2019-03-23 01:42:26 20.8 19 22.9
003A7977 2019-03-23 01:11:18 20.9 19 23
003A7977 2019-03-23 00:40:10 20.9 19 23.6
003A7977 2019-03-23 00:09:04 21 18 23.6
003A7977 2019-03-22 23:37:58 21.1 18 23.5
003A7977 2019-03-22 23:06:18 21.2 18 23.5
003A7977 2019-03-22 22:35:10 21.2 18 23.5
003A7977 2019-03-22 22:04:04 21.3 18 23.6
003A7977 2019-03-22 21:32:58 21.4 17 23.5
003A7977 2019-03-22 21:01:51 21.4 17 23.4
003A7977 2019-03-22 20:30:45 21.5 17 23.6
003A7977 2019-03-22 19:59:39 21.4 17 23.6
003A7977 2019-03-22 19:28:31 21.4 16 23.6
003A7977 2019-03-22 18:57:22 21.5 16 23.5
003A7977 2019-03-22 18:26:13 21.4 16 22.9
003A7977 2019-03-22 17:55:06 21.4 16 23
003A7977 2019-03-22 17:23:58 21.4 15 23.1
003A7977 2019-03-22 16:52:51 21.4 15 23.1
003A7977 2019-03-22 16:21:43 21.4 15 22.9
003A7977 2019-03-22 15:50:35 21.3 16 22.9
003A7977 2019-03-22 15:19:27 21.2 16 22.9
003A7977 2019-03-22 14:48:20 21 17 23
003A7977 2019-03-22 14:17:13 20.9 17 22.9
003A7977 2019-03-22 13:46:05 20.8 18 22.7
003A7977 2019-03-22 13:14:58 20.8 18 22.8
003A7977 2019-03-22 12:43:49 20.8 19 22.8
003A7977 2019-03-22 12:12:39 20.8 19 21.9
003A7977 2019-03-22 11:41:31 20.8 19 21.9
003A7977 2019-03-22 11:10:20 20.8 20 22
003A7977 2019-03-22 10:39:12 20.7 20 22.2
003A7977 2019-03-22 10:08:03 20.7 21 22.1
003A7977 2019-03-22 09:36:53 20.7 21 22.2
003A7977 2019-03-22 09:05:44 20.7 22 22
003A7977 2019-03-22 08:34:36 20.7 22 21.9
003A7977 2019-03-22 08:03:27 20.7 23 22
003A7977 2019-03-22 07:32:17 20.7 23 22
003A7977 2019-03-22 07:01:08 20.7 24 21.8
003A7977 2019-03-22 06:29:58 20.7 24 21.9
003A7977 2019-03-22 05:58:49 20.7 24 21.8
003A7977 2019-03-22 05:27:41 20.7 24 21.7
003A7977 2019-03-22 04:56:27 20.7 25 21.6
003A7977 2019-03-22 04:25:18 20.7 25 21.8
003A7977 2019-03-22 03:54:09 20.7 26 21.9
003A7977 2019-03-22 03:23:00 20.7 26 22
003A7977 2019-03-22 02:51:50 20.8 26 22.8
003A7977 2019-03-22 02:20:42 20.7 27 23
003A7977 2019-03-22 01:49:35 20.8 27 22.9
003A7977 2019-03-22 01:18:27 20.8 27 22.9
003A7977 2019-03-22 00:47:18 20.8 28 23.6
003A7977 2019-03-22 00:16:07 20.9 28 23.6
003A7977 2019-03-21 23:44:58 20.8 28 23.5
003A7977 2019-03-21 23:13:50 20.9 28 24
003A7977 2019-03-21 22:42:42 20.9 28 24
003A7977 2019-03-21 22:11:33 20.9 28 23.9
003A7977 2019-03-21 21:40:23 21 28 24.5
003A7977 2019-03-21 21:08:42 21 28 24.5
003A7977 2019-03-21 20:37:33 21 28 24.5
003A7977 2019-03-21 20:06:26 21 28 24.5
003A7977 2019-03-21 19:35:17 21.1 28 24.4
003A7977 2019-03-21 19:04:09 21.1 28 24.5
003A7977 2019-03-21 18:33:02 21.1 28 24.5
003A7977 2019-03-21 18:01:54 21.2 28 24.6
003A7977 2019-03-21 17:30:46 21.2 28 24.5
003A7977 2019-03-21 16:59:39 21.3 28 24.5
003A7977 2019-03-21 16:28:31 21.4 28 24.5
003A7977 2019-03-21 15:57:23 21.5 28 24.4
003A7977 2019-03-21 15:26:15 21.5 29 24.4
003A7977 2019-03-21 14:55:07 21.4 28 23.8
003A7977 2019-03-21 14:24:00 21.3 27 23.7
003A7977 2019-03-21 13:52:51 21.2 27 23.7
003A7977 2019-03-21 13:21:43 21.1 26 23.7
003A7977 2019-03-21 12:50:34 21 26 23.7
003A7977 2019-03-21 12:19:26 21 26 23
003A7977 2019-03-21 11:48:19 20.9 25 23
003A7977 2019-03-21 11:17:12 20.9 25 23.1
003A7977 2019-03-21 10:46:04 20.9 25 22.3
003A7977 2019-03-21 10:14:55 20.7 25 22.4
003A7977 2019-03-21 09:43:47 20.7 25 21.4
003A7977 2019-03-21 09:12:40 20.7 25 21.4
003A7977 2019-03-21 08:41:32 20.6 25 21.5
003A7977 2019-03-21 08:10:23 20.7 25 21.4
003A7977 2019-03-21 07:39:16 20.7 25 21.4
003A7977 2019-03-21 07:08:07 20.6 25 21.5
003A7977 2019-03-21 06:37:00 20.7 25 21.5
003A7977 2019-03-21 06:05:53 20.7 25 21.5
003A7977 2019-03-21 05:34:44 20.6 25 21.3
003A7977 2019-03-21 05:03:36 20.7 25 21.4
003A7977 2019-03-21 04:32:26 20.6 25 21.4
003A7977 2019-03-21 04:01:18 20.7 25 21.4
003A7977 2019-03-21 03:30:09 20.7 26 21.4
003A7977 2019-03-21 02:59:02 20.7 26 21.3
003A7977 2019-03-21 02:27:54 20.6 26 21.3
003A7977 2019-03-21 01:56:46 20.7 26 21.4
003A7977 2019-03-21 01:25:37 20.7 26 21.3
003A7977 2019-03-21 00:54:28 20.7 26 21.2
003A7977 2019-03-21 00:23:18 20.7 26 21.3
003A7977 2019-03-20 23:52:11 20.7 26 21.3
003A7977 2019-03-20 23:21:03 20.7 26 21.2
003A7977 2019-03-20 22:49:55 20.7 26 21.1
003A7977 2019-03-20 22:18:47 20.7 26 21.1
003A7977 2019-03-20 21:47:38 20.8 26 21
003A7977 2019-03-20 21:16:29 20.8 26 21.1
003A7977 2019-03-20 20:45:21 20.8 26 21.2
003A7977 2019-03-20 20:14:13 20.9 26 21.2
003A7977 2019-03-20 19:43:06 20.9 26 21.1
003A7977 2019-03-20 19:11:24 20.9 26 21
003A7977 2019-03-20 18:40:17 20.9 26 20.9
003A7977 2019-03-20 18:09:10 21 26 21
003A7977 2019-03-20 17:38:02 21 26 21.1
003A7977 2019-03-20 17:06:55 21.1 26 21.1
003A7977 2019-03-20 16:35:48 21.1 26 21.1
003A7977 2019-03-20 16:04:41 21.2 26 21.1
003A7977 2019-03-20 15:33:33 21.3 26 21
003A7977 2019-03-20 15:02:26 21.2 25 21.1
003A7977 2019-03-20 14:31:16 21.1 25 21.2
003A7977 2019-03-20 14:00:07 21.2 25 21.3
003A7977 2019-03-20 13:28:57 21.1 25 21.4
003A7977 2019-03-20 12:57:49 21 25 21.6
003A7977 2019-03-20 12:26:42 21 25 21.6
003A7977 2019-03-20 11:55:35 21 25 21.7
003A7977 2019-03-20 11:24:27 20.9 25 21.8
003A7977 2019-03-20 10:53:19 20.9 25 21.7
003A7977 2019-03-20 10:22:11 20.7 24 21.7
003A7977 2019-03-20 09:51:03 20.7 24 21.9
003A7977 2019-03-20 09:19:55 20.6 24 22
003A7977 2019-03-20 08:48:46 20.6 25 21.9
003A7977 2019-03-20 08:17:37 20.5 25 21.8
003A7977 2019-03-20 07:46:27 20.6 26 21.9
003A7977 2019-03-20 07:15:18 20.6 26 22
003A7977 2019-03-20 06:44:07 20.6 26 22.1
003A7977 2019-03-20 06:12:58 20.6 26 22
003A7977 2019-03-20 05:41:46 20.6 26 22
003A7977 2019-03-20 05:10:37 20.6 27 21.9
003A7977 2019-03-20 04:39:28 20.6 27 22
003A7977 2019-03-20 04:08:19 20.6 27 22
003A7977 2019-03-20 03:37:10 20.6 27 21.9
003A7977 2019-03-20 03:06:01 20.6 27 21.9
003A7977 2019-03-20 02:34:52 20.6 27 22
003A7977 2019-03-20 02:03:43 20.6 28 21.9
003A7977 2019-03-20 01:32:33 20.6 28 21.8
003A7977 2019-03-20 01:01:23 20.7 28 21.7
003A7977 2019-03-20 00:30:14 20.7 28 21.5
003A7977 2019-03-19 23:59:04 20.7 28 21.5
003A7977 2019-03-19 23:27:55 20.8 28 21.3
003A7977 2019-03-19 22:56:45 20.8 28 21.3
003A7977 2019-03-19 22:25:35 20.8 28 21.2
003A7977 2019-03-19 21:54:24 20.8 29 21.3
003A7977 2019-03-19 21:23:15 20.9 29 21.2
003A7977 2019-03-19 20:52:04 20.9 29 21.1
003A7977 2019-03-19 20:20:55 20.9 29 21
003A7977 2019-03-19 19:49:46 21 29 21
003A7977 2019-03-19 19:18:38 21 29 21
003A7977 2019-03-19 18:47:29 21.1 29 21.1
003A7977 2019-03-19 18:16:20 21.1 29 20.9
003A7977 2019-03-19 17:45:11 21.3 30 20.9
003A7977 2019-03-19 17:13:27 21.4 31 21.1
003A7977 2019-03-19 16:42:18 21.3 31 21.2
003A7977 2019-03-19 16:11:09 21.3 30 21
003A7977 2019-03-19 15:40:01 21.2 30 20.9
003A7977 2019-03-19 15:08:53 21.2 29 21.2
003A7977 2019-03-19 14:37:45 21.3 29 21.2
003A7977 2019-03-19 14:06:36 21.2 30 21.3
003A7977 2019-03-19 13:35:27 21.2 29 21.3
003A7977 2019-03-19 13:04:19 21.2 30 21.4
003A7977 2019-03-19 12:33:11 21.2 30 21.4
003A7977 2019-03-19 12:02:00 21.1 30 21.5
003A7977 2019-03-19 11:30:52 21 30 21.6
003A7977 2019-03-19 10:59:43 20.9 29 21.6
003A7977 2019-03-19 10:28:33 20.8 29 21.6
003A7977 2019-03-19 09:57:26 20.7 28 21.5
003A7977 2019-03-19 09:26:18 20.7 28 21.4
003A7977 2019-03-19 08:55:10 20.6 27 21.4
003A7977 2019-03-19 08:24:02 20.6 27 21.3
003A7977 2019-03-19 07:52:53 20.6 27 21.4
003A7977 2019-03-19 07:21:44 20.6 27 21.6
003A7977 2019-03-19 06:50:34 20.6 27 21.6
003A7977 2019-03-19 06:19:26 20.6 27 21.4
003A7977 2019-03-19 05:48:19 20.6 27 21.5
003A7977 2019-03-19 05:17:11 20.6 27 21.3
003A7977 2019-03-19 04:46:01 20.6 27 21.4
003A7977 2019-03-19 04:14:51 20.6 27 21.4
003A7977 2019-03-19 03:43:40 20.6 27 21.3
003A7977 2019-03-19 03:12:32 20.6 27 21.1
003A7977 2019-03-19 02:41:22 20.6 27 21.1
003A7977 2019-03-19 02:10:13 20.6 27 20.9
003A7977 2019-03-19 01:39:04 20.6 27 20.7
003A7977 2019-03-19 01:07:56 20.6 27 20.7
003A7977 2019-03-19 00:36:48 20.6 27 20.8
003A7977 2019-03-19 00:05:39 20.6 27 20.6
003A7977 2019-03-18 23:34:31 20.6 27 20.7
003A7977 2019-03-18 23:03:22 20.7 27 20.6
003A7977 2019-03-18 22:32:15 20.7 27 20.5
003A7977 2019-03-18 22:01:07 20.7 27 20.4
003A7977 2019-03-18 21:29:59 20.7 27 20.3
003A7977 2019-03-18 20:58:51 20.7 27 20.3
003A7977 2019-03-18 20:27:44 20.7 27 20.4
003A7977 2019-03-18 19:56:39 20.7 27 20.4
003A7977 2019-03-18 19:25:29 20.8 27 20.4
003A7977 2019-03-18 18:54:22 20.8 27 20.2
003A7977 2019-03-18 18:23:15 20.8 27 20.1
003A7977 2019-03-18 17:52:06 20.9 27 20.1
003A7977 2019-03-18 17:20:58 21 27 20.1
003A7977 2019-03-18 16:49:50 21 27 20
003A7977 2019-03-18 16:18:42 21 28 20.1
003A7977 2019-03-18 15:47:35 20.9 27 19.8
003A7977 2019-03-18 15:15:54 20.9 27 21.4
003A7977 2019-03-18 14:44:48 20.9 27 21.4
003A7977 2019-03-18 14:13:38 20.9 27 21.6
003A7977 2019-03-18 13:42:31 20.8 27 21.5
003A7977 2019-03-18 13:11:22 20.8 27 21.6
003A7977 2019-03-18 12:40:15 20.8 27 21.5
003A7977 2019-03-18 12:09:06 20.8 28 21.5
003A7977 2019-03-18 11:37:59 20.8 27 21.7
003A7977 2019-03-18 11:06:51 20.8 27 21.6
003A7977 2019-03-18 10:35:43 20.7 27 21.7
003A7977 2019-03-18 10:04:34 20.7 27 21.7
003A7977 2019-03-18 09:33:28 20.7 27 21.7
003A7977 2019-03-18 09:02:20 20.7 27 21.8
003A7977 2019-03-18 08:31:13 20.6 27 21.7
003A7977 2019-03-18 08:00:05 20.6 27 21.7
003A7977 2019-03-18 07:28:57 20.6 27 21.6
003A7977 2019-03-18 06:57:49 20.6 27 21.6
003A7977 2019-03-18 06:26:42 20.7 27 21.7
003A7977 2019-03-18 05:55:33 20.6 27 21.6
003A7977 2019-03-18 05:24:24 20.6 27 21.5
003A7977 2019-03-18 04:53:16 20.6 27 21.4
003A7977 2019-03-18 04:22:07 20.6 27 21.5
003A7977 2019-03-18 03:50:58 20.6 27 21.4
003A7977 2019-03-18 03:19:49 20.6 27 21.4
003A7977 2019-03-18 02:48:40 20.6 27 21.3
003A7977 2019-03-18 02:17:31 20.6 27 19.9
003A7977 2019-03-18 01:46:22 20.6 27 20.1
003A7977 2019-03-18 01:15:14 20.6 27 20.2
003A7977 2019-03-18 00:44:07 20.6 26 20.3
003A7977 2019-03-18 00:12:59 20.6 26 21.6
003A7977 2019-03-17 23:41:53 20.6 26 21.5
003A7977 2019-03-17 23:10:46 20.6 26 21.4
003A7977 2019-03-17 22:39:36 20.6 26 21.3
003A7977 2019-03-17 22:08:28 20.6 26 21.3
003A7977 2019-03-17 21:37:18 20.6 26 21.2
003A7977 2019-03-17 21:06:10 20.6 26 21.1
003A7977 2019-03-17 20:35:01 20.6 26 21.2
003A7977 2019-03-17 20:03:53 20.6 26 21.1
003A7977 2019-03-17 19:32:43 20.6 26 21.3
003A7977 2019-03-17 19:01:35 20.6 26 21.3
003A7977 2019-03-17 18:30:27 20.6 26 21.5
003A7977 2019-03-17 17:59:18 20.6 26 21.5
003A7977 2019-03-17 17:28:09 20.6 26 21.5
003A7977 2019-03-17 16:57:02 20.7 27 21.7
003A7977 2019-03-17 16:25:54 20.7 27 21.8
003A7977 2019-03-17 15:54:47 20.7 27 21.8
003A7977 2019-03-17 15:23:39 20.7 27 21.7
003A7977 2019-03-17 14:52:30 20.7 27 21.7
003A7977 2019-03-17 14:21:23 20.7 27 21.8
003A7977 2019-03-17 13:50:14 20.7 27 21.8
003A7977 2019-03-17 13:18:33 20.7 27 21.8
003A7977 2019-03-17 12:47:25 20.7 27 21.6
003A7977 2019-03-17 12:16:17 20.7 27 21.6
003A7977 2019-03-17 11:45:09 20.7 27 20.2
003A7977 2019-03-17 11:14:01 20.7 27 20.3
003A7977 2019-03-17 10:42:53 20.7 27 20.5
003A7977 2019-03-17 10:11:44 20.7 27 20.7
003A7977 2019-03-17 09:40:35 20.7 27 20.6
003A7977 2019-03-17 09:09:27 20.7 27 20.6
003A7977 2019-03-17 08:38:19 20.6 27 20.5
003A7977 2019-03-17 08:07:11 20.7 27 20.6
003A7977 2019-03-17 07:36:02 20.6 27 20.6
003A7977 2019-03-17 07:04:56 20.6 27 20.4
003A7977 2019-03-17 06:33:46 20.6 27 20.5
003A7977 2019-03-17 06:02:37 20.6 27 20.5
003A7977 2019-03-17 05:31:29 20.6 27 20.5
003A7977 2019-03-17 05:00:20 20.6 27 20.6
003A7977 2019-03-17 04:29:11 20.6 27 20.3
003A7977 2019-03-17 03:58:02 20.6 27 20.2
003A7977 2019-03-17 03:26:55 20.7 27 20.2
003A7977 2019-03-17 02:55:47 20.7 27 20.2
003A7977 2019-03-17 02:24:38 20.6 27 20.3
003A7977 2019-03-17 01:53:30 20.7 27 20.4
003A7977 2019-03-17 01:22:21 20.6 27 20.3
003A7977 2019-03-17 00:51:13 20.6 27 20.3
003A7977 2019-03-17 00:20:06 20.6 27 20.3
003A7977 2019-03-16 23:48:58 20.6 27 21.6
003A7977 2019-03-16 23:17:49 20.6 27 21.7
003A7977 2019-03-16 22:46:42 20.7 27 21.7
003A7977 2019-03-16 22:15:34 20.6 27 21.6
003A7977 2019-03-16 21:44:25 20.6 27 21.6
003A7977 2019-03-16 21:13:16 20.7 27 21.5
003A7977 2019-03-16 20:42:08 20.7 27 21.6
003A7977 2019-03-16 20:10:59 20.7 27 21.8
003A7977 2019-03-16 19:39:50 20.7 27 21.8
003A7977 2019-03-16 19:08:43 20.7 27 21.8
003A7977 2019-03-16 18:37:34 20.7 26 21.8
003A7977 2019-03-16 18:06:25 20.7 26 21.8
003A7977 2019-03-16 17:35:18 20.7 26 21.8
003A7977 2019-03-16 17:04:10 20.7 26 22.7
003A7977 2019-03-16 16:33:00 20.7 26 22.7
003A7977 2019-03-16 16:01:53 20.7 26 22.7
003A7977 2019-03-16 15:30:45 20.7 26 22.7
003A7977 2019-03-16 14:59:37 20.7 26 22.8
003A7977 2019-03-16 14:28:28 20.7 26 22.8
003A7977 2019-03-16 13:57:19 20.7 26 22.9
003A7977 2019-03-16 13:26:10 20.7 26 22.8
003A7977 2019-03-16 12:55:03 20.7 26 22.7
003A7977 2019-03-16 12:23:55 20.7 26 22.7
003A7977 2019-03-16 11:52:46 20.7 26 22.8
003A7977 2019-03-16 11:21:05 20.7 26 21.8
003A7977 2019-03-16 10:49:56 20.7 26 21.7
003A7977 2019-03-16 10:18:48 20.7 26 21.7
003A7977 2019-03-16 09:47:40 20.7 26 21.9
003A7977 2019-03-16 09:16:32 20.7 26 21.8
003A7977 2019-03-16 08:45:23 20.7 26 21.9
003A7977 2019-03-16 08:14:13 20.7 26 21.8
003A7977 2019-03-16 07:43:04 20.7 26 21.8
003A7977 2019-03-16 07:11:56 20.7 26 21.8
003A7977 2019-03-16 06:40:46 20.7 26 21.8
003A7977 2019-03-16 06:09:37 20.7 26 21.8
003A7977 2019-03-16 05:38:27 20.7 26 21.7
003A7977 2019-03-16 05:07:16 20.7 26 21.7
003A7977 2019-03-16 04:36:07 20.7 26 21.7
003A7977 2019-03-16 04:04:58 20.7 26 21.6
003A7977 2019-03-16 03:33:50 20.7 26 21.5
003A7977 2019-03-16 03:02:40 20.7 27 21.6
003A7977 2019-03-16 02:31:33 20.7 27 21.6
003A7977 2019-03-16 02:00:25 20.7 27 21.7
003A7977 2019-03-16 01:29:19 20.7 27 21.8
003A7977 2019-03-16 00:58:10 20.7 27 21.9
003A7977 2019-03-16 00:27:00 20.7 27 21.9
003A7977 2019-03-15 23:55:53 20.7 27 21.9
003A7977 2019-03-15 23:24:47 20.7 27 21.9
003A7977 2019-03-15 22:53:39 20.8 27 22
003A7977 2019-03-15 22:22:32 20.8 27 22
003A7977 2019-03-15 21:51:24 20.8 27 22
003A7977 2019-03-15 21:20:17 20.9 27 22.8
003A7977 2019-03-15 20:49:10 20.8 27 22.8
003A7977 2019-03-15 20:18:04 20.9 27 22.7
003A7977 2019-03-15 19:46:57 20.9 27 22.6
003A7977 2019-03-15 19:15:50 20.8 26 22.5
003A7977 2019-03-15 18:44:43 20.8 26 22.6
003A7977 2019-03-15 18:13:35 20.9 26 22.6
003A7977 2019-03-15 17:42:28 20.9 26 22.6
003A7977 2019-03-15 17:11:21 20.9 26 22.6
003A7977 2019-03-15 16:40:14 20.9 26 22.6
003A7977 2019-03-15 16:09:07 20.9 26 22.7
003A7977 2019-03-15 15:37:59 20.8 26 21.8
003A7977 2019-03-15 15:06:51 20.9 26 21.9
003A7977 2019-03-15 14:35:43 20.9 26 21.9
003A7977 2019-03-15 14:04:36 20.9 26 21.8
003A7977 2019-03-15 13:33:29 20.9 26 21.9
003A7977 2019-03-15 13:02:21 20.9 26 21.7
003A7977 2019-03-15 12:31:14 20.9 26 21.8
003A7977 2019-03-15 12:00:06 20.9 26 21.6
003A7977 2019-03-15 11:28:58 20.8 26 21.7
003A7977 2019-03-15 10:57:49 20.8 26 21.7
003A7977 2019-03-15 10:26:42 20.8 26 21.8
003A7977 2019-03-15 09:55:33 20.8 26 21.8
003A7977 2019-03-15 09:23:54 20.7 26 21.9
003A7977 2019-03-15 08:52:46 20.7 25 21.9
003A7977 2019-03-15 08:21:38 20.7 25 20.8
003A7977 2019-03-15 07:50:31 20.7 25 20.7
003A7977 2019-03-15 07:19:24 20.7 25 20.8
003A7977 2019-03-15 06:48:16 20.7 25 20.9
003A7977 2019-03-15 06:17:07 20.7 25 21
003A7977 2019-03-15 05:45:58 20.7 24 20.9
003A7977 2019-03-15 05:14:51 20.7 24 20.8
003A7977 2019-03-15 04:43:42 20.7 24 20.9
003A7977 2019-03-15 04:12:34 20.7 24 20.6
003A7977 2019-03-15 03:41:26 20.7 24 20.6
003A7977 2019-03-15 03:10:18 20.7 24 20.5
003A7977 2019-03-15 02:39:11 20.7 24 20.5
003A7977 2019-03-15 02:08:03 20.7 24 20.3
003A7977 2019-03-15 01:36:55 20.7 24 20.4
003A7977 2019-03-15 01:05:48 20.7 24 20.3
003A7977 2019-03-15 00:34:40 20.7 24 20.3
003A7977 2019-03-15 00:03:32 20.7 24 20.3
003A7977 2019-03-14 23:32:25 20.8 24 20.1
003A7977 2019-03-14 23:01:17 20.7 24 20.1
003A7977 2019-03-14 22:30:08 20.8 24 20
003A7977 2019-03-14 21:59:00 20.8 24 19.8
003A7977 2019-03-14 21:27:51 20.8 24 19.5
003A7977 2019-03-14 20:56:43 20.9 24 19.3
003A7977 2019-03-14 20:25:38 20.9 24 19.2
003A7977 2019-03-14 19:54:27 20.9 24 19.2
003A7977 2019-03-14 19:23:20 20.9 24 19.2
003A7977 2019-03-14 18:52:12 20.9 24 19.2
003A7977 2019-03-14 18:21:06 21 24 19.3
003A7977 2019-03-14 17:49:58 21 24 19.4
003A7977 2019-03-14 17:18:50 21 24 20.9
003A7977 2019-03-14 16:47:43 21 24 20.9
003A7977 2019-03-14 16:16:36 21 24 21
003A7977 2019-03-14 15:45:29 21 24 21
003A7977 2019-03-14 15:14:21 21 24 21.1
003A7977 2019-03-14 14:43:16 21 24 21.2
003A7977 2019-03-14 14:12:07 21 24 21.4
003A7977 2019-03-14 13:40:59 21 24 21.5
003A7977 2019-03-14 13:09:51 21 24 22.5
003A7977 2019-03-14 12:38:43 21 24 22.5
003A7977 2019-03-14 12:07:35 20.9 23 22.6
003A7977 2019-03-14 11:36:27 20.9 23 22.6
003A7977 2019-03-14 11:05:20 20.9 23 22.6
003A7977 2019-03-14 10:34:11 20.9 23 23.4
003A7977 2019-03-14 10:03:03 20.8 22 23.5
003A7977 2019-03-14 09:31:55 20.8 22 23.5
003A7977 2019-03-14 09:00:47 20.7 21 23.6
003A7977 2019-03-14 07:26:49 20.7 20 24.3
003A7977 2019-03-14 04:51:10 20.7 19 23.6
003A7977 2019-03-14 04:20:03 20.7 19 23.5
003A7977 2019-03-14 03:48:56 20.7 19 23.4
003A7977 2019-03-14 03:17:49 20.7 18 23.3
003A7977 2019-03-14 02:46:42 20.7 18 23.3
003A7977 2019-03-14 02:15:34 20.7 18 23.9
003A7977 2019-03-14 01:44:27 20.7 18 24.5
003A7977 2019-03-14 01:13:18 20.7 18 24.4
003A7977 2019-03-14 00:42:08 20.7 18 23.8
003A7977 2019-03-14 00:10:59 20.7 17 23.7
003A7977 2019-03-13 23:39:50 20.7 17 23.7
003A7977 2019-03-13 23:08:40 20.7 17 23.6
003A7977 2019-03-13 22:37:32 20.7 17 23.7
003A7977 2019-03-13 22:06:25 20.7 17 23
003A7977 2019-03-13 21:35:17 20.7 17 23
003A7977 2019-03-13 21:04:11 20.7 17 23.1
003A7977 2019-03-13 20:33:02 20.8 17 23.2
003A7977 2019-03-13 20:01:54 20.8 17 23.2
003A7977 2019-03-13 19:30:46 20.8 16 23.2
003A7977 2019-03-13 18:59:41 20.8 16 22.6
003A7977 2019-03-13 18:28:32 20.9 16 22.7
003A7977 2019-03-13 17:57:24 21 16 22.6
003A7977 2019-03-13 17:26:17 21 16 22.8
003A7977 2019-03-13 16:55:10 21.1 16 22.9
003A7977 2019-03-13 16:24:02 21.1 16 23.1
003A7977 2019-03-13 15:52:53 21 16 23.1
003A7977 2019-03-13 15:21:43 21 16 23.2
003A7977 2019-03-13 14:50:34 20.9 16 23.3
003A7977 2019-03-13 14:19:26 20.9 16 23.4
003A7977 2019-03-13 13:48:19 20.9 16 23.4
003A7977 2019-03-13 13:17:10 20.9 16 22.7
003A7977 2019-03-13 12:46:01 21 16 21.8
003A7977 2019-03-13 12:14:52 20.9 16 21.8
003A7977 2019-03-13 11:43:43 20.9 16 21.9
003A7977 2019-03-13 11:12:34 20.9 16 22.1
003A7977 2019-03-13 10:41:25 20.8 16 22.2
003A7977 2019-03-13 10:10:15 20.8 16 22.3
003A7977 2019-03-13 09:39:06 20.6 15 22.2
003A7977 2019-03-13 09:07:56 20.4 15 22.2
003A7977 2019-03-13 08:36:47 20.4 14 22.2
003A7977 2019-03-13 08:05:39 20.4 15 22
003A7977 2019-03-13 07:34:29 20.4 15 21.9
003A7977 2019-03-13 07:03:22 20.4 15 21.9
003A7977 2019-03-13 06:32:14 20.4 15 21.9
003A7977 2019-03-13 06:01:05 20.4 15 21.9
003A7977 2019-03-13 05:29:26 20.5 15 22
003A7977 2019-03-13 04:58:19 20.4 16 21.9
003A7977 2019-03-13 04:27:11 20.4 16 22
003A7977 2019-03-13 03:56:04 20.5 16 21.7
003A7977 2019-03-13 03:24:54 20.5 16 21.6
003A7977 2019-03-13 02:53:47 20.5 16 21.7
003A7977 2019-03-13 02:22:40 20.5 16 22.6
003A7977 2019-03-13 01:51:32 20.5 16 22.6
003A7977 2019-03-13 01:20:24 20.5 16 22.6
003A7977 2019-03-13 00:49:16 20.5 16 22.6
003A7977 2019-03-13 00:18:07 20.5 16 22.6
003A7977 2019-03-12 23:47:00 20.5 16 23.4
003A7977 2019-03-12 23:15:51 20.6 16 23.4
003A7977 2019-03-12 22:44:45 20.6 16 23.3
003A7977 2019-03-12 22:13:35 20.6 16 23.9
003A7977 2019-03-12 21:42:28 20.6 16 24.5
003A7977 2019-03-12 21:11:21 20.7 16 25
003A7977 2019-03-12 20:40:13 20.7 16 25.5
003A7977 2019-03-12 20:09:05 20.7 16 25.9
003A7977 2019-03-12 19:37:58 20.7 16 26.3
003A7977 2019-03-12 19:06:49 20.7 16 26.6
003A7977 2019-03-12 18:35:41 20.7 16 26.9
003A7977 2019-03-12 18:04:32 20.8 16 27.2
003A7977 2019-03-12 17:33:21 20.8 16 27.4
003A7977 2019-03-12 17:02:10 20.8 16 27.7
003A7977 2019-03-12 16:31:00 20.8 16 27.9
003A7977 2019-03-12 15:59:51 20.8 16 28.2
003A7977 2019-03-12 15:28:42 20.8 16 28.4
003A7977 2019-03-12 14:57:33 20.8 16 28.6
003A7977 2019-03-12 14:26:25 20.8 16 28.8
003A7977 2019-03-12 13:55:17 20.7 16 29
003A7977 2019-03-12 13:24:08 20.7 16 29
003A7977 2019-03-12 12:53:00 20.7 16 29.2
003A7977 2019-03-12 12:21:52 20.7 16 29.2
003A7977 2019-03-12 11:50:43 20.7 16 29.3
003A7977 2019-03-12 11:19:34 20.6 16 29.5
003A7977 2019-03-12 10:48:23 20.6 15 29.5
003A7977 2019-03-12 10:17:14 20.5 15 29.7
003A7977 2019-03-12 09:46:07 20.5 15 29.8
003A7977 2019-03-12 09:14:58 20.4 15 29.8
003A7977 2019-03-12 08:43:50 20.4 15 29.8
003A7977 2019-03-12 08:12:41 20.4 15 29.8
003A7977 2019-03-12 07:41:33 20.4 15 29.8
003A7977 2019-03-12 07:10:25 20.4 16 29.8
003A7977 2019-03-12 06:39:17 20.4 16 29.8
003A7977 2019-03-12 06:08:08 20.4 16 29.8
003A7977 2019-03-12 05:36:59 20.4 16 29.8
003A7977 2019-03-12 05:05:52 20.4 16 29.8
003A7977 2019-03-12 04:34:44 20.5 16 29.8
003A7977 2019-03-12 04:03:36 20.5 16 29.7
003A7977 2019-03-12 03:31:58 20.5 16 29.4
003A7977 2019-03-12 03:00:51 20.5 16 29.2
003A7977 2019-03-12 02:29:43 20.5 16 29
003A7977 2019-03-12 01:58:35 20.5 16 28.9
003A7977 2019-03-12 01:27:28 20.5 16 28.6
003A7977 2019-03-12 00:56:21 20.5 16 28.4
003A7977 2019-03-12 00:25:13 20.5 16 28.2
003A7977 2019-03-11 23:54:06 20.5 16 28.2
003A7977 2019-03-11 23:22:58 20.6 16 28
003A7977 2019-03-11 22:51:50 20.6 16 27.8
003A7977 2019-03-11 22:20:41 20.6 16 27.5
003A7977 2019-03-11 21:49:33 20.6 16 27.2
003A7977 2019-03-11 21:18:24 20.7 16 26.9
003A7977 2019-03-11 20:47:17 20.7 16 26.6
003A7977 2019-03-11 20:16:10 20.7 16 26.2
003A7977 2019-03-11 19:45:02 20.8 16 25.8
003A7977 2019-03-11 19:13:54 20.8 16 25.4
003A7977 2019-03-11 18:42:47 20.8 16 25
003A7977 2019-03-11 18:11:40 20.8 16 24.6
003A7977 2019-03-11 17:40:33 20.9 16 24
003A7977 2019-03-11 17:09:26 20.9 16 23.4
003A7977 2019-03-11 16:38:19 20.9 16 22.8
003A7977 2019-03-11 16:07:10 20.9 16 22
003A7977 2019-03-11 15:36:04 20.8 16 21.9
003A7977 2019-03-11 15:04:55 20.7 16 21.9
003A7977 2019-03-11 14:33:46 20.7 16 21.7
003A7977 2019-03-11 14:02:39 20.7 16 21.6
003A7977 2019-03-11 13:31:30 20.7 16 21.8
003A7977 2019-03-11 13:00:22 20.6 16 21.8
003A7977 2019-03-11 12:29:14 20.6 16 21.8
003A7977 2019-03-11 11:58:05 20.6 16 21.9
003A7977 2019-03-11 11:26:57 20.5 16 21.9
003A7977 2019-03-11 10:55:49 20.6 17 22
003A7977 2019-03-11 10:24:40 20.5 17 22.2
003A7977 2019-03-11 09:53:33 20.5 17 22
003A7977 2019-03-11 09:22:24 20.4 17 21.9
003A7977 2019-03-11 08:51:17 20.4 17 21.7
003A7977 2019-03-11 08:20:09 20.4 17 21.9
003A7977 2019-03-11 07:49:01 20.4 17 21.9
003A7977 2019-03-11 07:17:54 20.4 18 21.9
003A7977 2019-03-11 06:46:45 20.4 18 21.9
003A7977 2019-03-11 06:15:36 20.4 18 22
003A7977 2019-03-11 05:44:27 20.5 18 21.8
003A7977 2019-03-11 05:13:19 20.5 18 21.7
003A7977 2019-03-11 04:42:11 20.5 18 21.7
003A7977 2019-03-11 04:11:03 20.5 18 21.7
003A7977 2019-03-11 03:39:54 20.5 18 21.6
003A7977 2019-03-11 03:08:46 20.4 18 21.5
003A7977 2019-03-11 02:37:37 20.5 18 21.7
003A7977 2019-03-11 02:06:28 20.5 19 21.6
003A7977 2019-03-11 01:34:47 20.5 19 21.8
003A7977 2019-03-11 01:03:39 20.5 19 21.7
003A7977 2019-03-11 00:32:31 20.5 19 21.7
003A7977 2019-03-11 00:01:22 20.5 19 21.7
003A7977 2019-03-10 23:30:15 20.5 19 21.8
003A7977 2019-03-10 22:59:06 20.5 19 21.7
003A7977 2019-03-10 22:27:57 20.5 19 21.6
003A7977 2019-03-10 21:56:48 20.6 19 21.5
003A7977 2019-03-10 21:25:40 20.6 19 21.6
003A7977 2019-03-10 20:54:31 20.6 19 21.8
003A7977 2019-03-10 20:23:22 20.6 19 21.9
003A7977 2019-03-10 19:52:12 20.7 19 21.8
003A7977 2019-03-10 19:21:03 20.7 20 21.8
003A7977 2019-03-10 18:49:54 20.7 20 21.8
003A7977 2019-03-10 18:18:45 20.7 20 21.8
003A7977 2019-03-10 17:47:37 20.8 20 21.8
003A7977 2019-03-10 17:16:29 20.8 20 21.9
003A7977 2019-03-10 16:45:20 20.8 20 21.9
003A7977 2019-03-10 16:14:10 20.8 20 21.9
003A7977 2019-03-10 15:42:59 20.7 21 21.9
003A7977 2019-03-10 15:11:50 20.8 22 21.9
003A7977 2019-03-10 14:40:40 20.7 23 21.8
003A7977 2019-03-10 14:09:30 20.7 23 21.7
003A7977 2019-03-10 13:38:22 20.7 24 21.7
003A7977 2019-03-10 13:07:13 20.6 24 21.8
003A7977 2019-03-10 12:36:05 20.6 24 21.7
003A7977 2019-03-10 12:04:58 20.6 24 21.6
003A7977 2019-03-10 11:33:51 20.6 24 21.5
003A7977 2019-03-10 11:02:44 20.6 24 21.6
003A7977 2019-03-10 10:31:37 20.6 24 21.5
003A7977 2019-03-10 10:00:29 20.6 24 21.7
003A7977 2019-03-10 09:29:21 20.6 24 21.7
003A7977 2019-03-10 08:58:11 20.6 25 21.8
003A7977 2019-03-10 08:27:02 20.6 25 21.8
003A7977 2019-03-10 07:55:53 20.6 25 21.5
003A7977 2019-03-10 07:24:45 20.6 25 21.5
003A7977 2019-03-10 06:53:37 20.6 25 21.4
003A7977 2019-03-10 06:22:29 20.6 25 22.4
003A7977 2019-03-10 05:51:22 20.6 25 22.4
003A7977 2019-03-10 05:20:14 20.6 24 22.5
003A7977 2019-03-10 04:49:05 20.6 24 22.6
003A7977 2019-03-10 04:17:56 20.6 24 22.6
003A7977 2019-03-10 03:46:46 20.6 24 22.7
003A7977 2019-03-10 03:15:38 20.6 24 22.6
003A7977 2019-03-10 02:44:28 20.6 24 22.5
003A7977 2019-03-10 02:13:22 20.6 24 22.6
003A7977 2019-03-10 01:42:14 20.7 24 22.6
003A7977 2019-03-10 01:11:09 20.7 24 22.7
003A7977 2019-03-10 00:40:03 20.7 24 22.7
003A7977 2019-03-10 00:08:56 20.7 24 22.7
003A7977 2019-03-09 23:37:16 20.7 24 22.8
003A7977 2019-03-09 23:06:09 20.6 24 22.8
003A7977 2019-03-09 22:35:02 20.7 24 22.8
003A7977 2019-03-09 22:03:53 20.7 24 22.8
003A7977 2019-03-09 21:32:47 20.7 24 22.8
003A7977 2019-03-09 21:01:38 20.7 23 22.7
003A7977 2019-03-09 20:30:30 20.7 23 22.6
003A7977 2019-03-09 19:59:22 20.7 23 22.6
003A7977 2019-03-09 19:28:14 20.7 23 22.7
003A7977 2019-03-09 18:57:07 20.8 23 22.6
003A7977 2019-03-09 18:26:00 20.8 23 22.8
003A7977 2019-03-09 17:54:53 20.8 23 22
003A7977 2019-03-09 17:23:45 20.8 23 22
003A7977 2019-03-09 16:52:37 20.8 23 21.9
003A7977 2019-03-09 16:21:28 20.9 23 21.7
003A7977 2019-03-09 15:50:22 20.9 23 21.5
003A7977 2019-03-09 15:19:13 20.8 23 21.5
003A7977 2019-03-09 14:48:05 20.8 23 21.6
003A7977 2019-03-09 14:16:58 20.8 23 21.7
003A7977 2019-03-09 13:45:50 20.8 23 21.6
003A7977 2019-03-09 13:14:42 20.7 23 21.6
003A7977 2019-03-09 12:43:34 20.7 23 21.6
003A7977 2019-03-09 12:12:26 20.7 24 21.5
003A7977 2019-03-09 11:41:17 20.7 24 21.7
003A7977 2019-03-09 11:10:10 20.7 24 21.6
003A7977 2019-03-09 10:39:00 20.6 24 21.6
003A7977 2019-03-09 10:07:52 20.6 24 21.5
003A7977 2019-03-09 09:36:45 20.6 24 21.5
003A7977 2019-03-09 09:05:38 20.6 24 21.4
003A7977 2019-03-09 08:34:31 20.6 25 21.2
003A7977 2019-03-09 08:03:23 20.6 25 21.1
003A7977 2019-03-09 07:32:15 20.6 25 21.3
003A7977 2019-03-09 07:01:06 20.6 25 21.2
003A7977 2019-03-09 06:29:58 20.7 26 21.2
003A7977 2019-03-09 05:58:49 20.7 26 21.4
003A7977 2019-03-09 05:27:42 20.7 26 21.3
003A7977 2019-03-09 04:56:34 20.7 26 21.2
003A7977 2019-03-09 04:25:24 20.7 26 21.2
003A7977 2019-03-09 03:54:17 20.7 27 22.2
003A7977 2019-03-09 03:23:08 20.7 27 22.4
003A7977 2019-03-09 02:52:02 20.8 27 22.5
003A7977 2019-03-09 02:20:51 20.8 27 22.5
003A7977 2019-03-09 01:49:43 20.8 27 22.4
003A7977 2019-03-09 01:18:35 20.8 27 22.4
003A7977 2019-03-09 00:47:27 20.8 27 22.4
003A7977 2019-03-09 00:16:19 20.9 27 22.4
003A7977 2019-03-08 23:45:12 20.8 27 22.3
003A7977 2019-03-08 23:14:04 20.9 27 22.2
003A7977 2019-03-08 22:42:56 20.9 27 22.1
003A7977 2019-03-08 22:11:48 20.9 27 22.2
003A7977 2019-03-08 21:40:10 20.9 27 23
003A7977 2019-03-08 21:09:02 21 27 22.9
003A7977 2019-03-08 20:37:54 21 27 22.9
003A7977 2019-03-08 20:06:47 21 27 23
003A7977 2019-03-08 19:35:39 21 27 23.1
003A7977 2019-03-08 19:04:32 21.1 27 23
003A7977 2019-03-08 18:33:25 21.1 27 23
003A7977 2019-03-08 18:02:18 21.1 27 23
003A7977 2019-03-08 17:31:09 21.2 27 23
003A7977 2019-03-08 17:00:02 21.2 28 23.7
003A7977 2019-03-08 16:28:56 21.2 28 23.7
003A7977 2019-03-08 15:57:48 21.2 28 23.6
003A7977 2019-03-08 15:26:41 21.1 27 22.9
003A7977 2019-03-08 14:55:33 21.1 27 22.9
003A7977 2019-03-08 14:24:27 21.1 27 22.8
003A7977 2019-03-08 13:53:20 21 27 22.7
003A7977 2019-03-08 13:22:13 21 27 22.6
003A7977 2019-03-08 12:51:07 21 27 22.7
003A7977 2019-03-08 12:19:59 20.9 26 22.7
003A7977 2019-03-08 11:48:51 20.9 26 22.8
003A7977 2019-03-08 11:17:43 20.9 26 22.9
003A7977 2019-03-08 10:46:34 20.8 26 23
003A7977 2019-03-08 10:15:26 20.9 26 23
003A7977 2019-03-08 09:44:17 20.8 25 22.9
003A7977 2019-03-08 09:13:08 20.8 25 22
003A7977 2019-03-08 08:42:00 20.8 25 22
003A7977 2019-03-08 08:10:52 20.8 24 22.1
003A7977 2019-03-08 07:39:44 20.8 24 22.1
003A7977 2019-03-08 07:08:35 20.8 24 22.1
003A7977 2019-03-08 06:37:26 20.8 24 21.8
003A7977 2019-03-08 06:06:18 20.8 24 21.8
003A7977 2019-03-08 05:35:09 20.8 24 21.8
003A7977 2019-03-08 05:04:00 20.8 24 21.8
003A7977 2019-03-08 04:32:52 20.8 23 21.5
003A7977 2019-03-08 04:01:43 20.8 23 20.2
003A7977 2019-03-08 03:30:36 20.8 23 21.6
003A7977 2019-03-08 02:59:28 20.8 23 21.6
003A7977 2019-03-08 02:28:21 20.8 23 21.4
003A7977 2019-03-08 01:57:12 20.7 23 21.4
003A7977 2019-03-08 01:26:03 20.8 23 21.4
003A7977 2019-03-08 00:54:54 20.8 23 21.5
003A7977 2019-03-08 00:23:45 20.8 23 21.5
003A7977 2019-03-07 23:52:36 20.8 23 21.2
003A7977 2019-03-07 23:21:28 20.8 23 22.2
003A7977 2019-03-07 22:50:18 20.8 23 22.1
003A7977 2019-03-07 22:19:09 20.9 23 22
003A7977 2019-03-07 21:48:00 20.9 23 21.8
003A7977 2019-03-07 21:16:50 20.9 23 21.7
003A7977 2019-03-07 20:45:40 20.9 23 21.5
003A7977 2019-03-07 20:14:29 20.9 23 21.5
003A7977 2019-03-07 19:42:43 21 23 21.5
003A7977 2019-03-07 19:11:35 21 23 21.4
003A7977 2019-03-07 18:40:24 21 23 21.5
003A7977 2019-03-07 18:09:14 21.1 23 21.6
003A7977 2019-03-07 17:38:05 21.2 23 21.6
003A7977 2019-03-07 17:06:56 21.2 23 21.5
003A7977 2019-03-07 16:35:47 21.3 23 21.5
003A7977 2019-03-07 16:04:38 21.2 23 21.5
003A7977 2019-03-07 15:33:27 21.2 22 21.5
003A7977 2019-03-07 15:02:18 21.2 22 20.2
003A7977 2019-03-07 14:31:11 21.2 22 20.1
003A7977 2019-03-07 14:00:01 21.1 21 20.1
003A7977 2019-03-07 13:28:53 21.1 21 20.1
003A7977 2019-03-07 12:57:44 21 20 19.9
003A7977 2019-03-07 12:26:36 21 20 19.8
003A7977 2019-03-07 11:55:27 21 19 20
003A7977 2019-03-07 11:24:19 21 19 20.1
003A7977 2019-03-07 10:53:10 20.9 19 18.1
003A7977 2019-03-07 10:22:00 20.9 18 18.2
003A7977 2019-03-07 09:50:52 20.8 17 18.1
003A7977 2019-03-07 09:19:43 20.8 17 18.2
003A7977 2019-03-07 08:48:36 20.8 16 18.2
003A7977 2019-03-07 08:17:27 20.8 16 18.3
003A7977 2019-03-07 07:46:18 20.8 15 18.1
003A7977 2019-03-07 07:15:09 20.8 15 18.1
003A7977 2019-03-07 06:43:59 20.8 15 18
003A7977 2019-03-07 06:12:50 20.8 15 17.9
003A7977 2019-03-07 05:41:40 20.8 15 17.6
003A7977 2019-03-07 05:10:32 20.8 14 17.3
003A7977 2019-03-07 04:39:21 20.8 14 17.4
003A7977 2019-03-07 04:08:12 20.8 14 17.3
003A7977 2019-03-07 03:37:04 20.8 14 17.2
003A7977 2019-03-07 03:05:56 20.8 14 17
003A7977 2019-03-07 02:34:49 20.8 13 17.1
003A7977 2019-03-07 02:03:43 20.8 13 17.1
003A7977 2019-03-07 01:32:35 20.8 13 19.5
003A7977 2019-03-07 01:01:28 20.8 13 19.6
003A7977 2019-03-07 00:30:20 20.8 13 19.8
003A7977 2019-03-06 23:59:12 20.8 13 19.9
003A7977 2019-03-06 23:28:04 20.8 13 19.9
003A7977 2019-03-06 22:56:57 20.8 12 19.7
003A7977 2019-03-06 22:25:49 20.8 12 19.7
003A7977 2019-03-06 21:54:42 20.8 12 19.7
003A7977 2019-03-06 21:23:35 20.8 12 19.6
003A7977 2019-03-06 20:52:27 20.9 12 19.7
003A7977 2019-03-06 20:21:21 20.9 12 19.8
003A7977 2019-03-06 19:50:13 20.9 12 19.9
003A7977 2019-03-06 19:19:06 20.9 12 20
003A7977 2019-03-06 18:48:00 20.9 12 20
003A7977 2019-03-06 18:16:50 20.9 11 20.1
003A7977 2019-03-06 17:45:01 21 11 20.3
003A7977 2019-03-06 17:13:53 21 11 20.4
003A7977 2019-03-06 16:42:46 21 11 20.7
003A7977 2019-03-06 16:11:37 21 11 20.7
003A7977 2019-03-06 15:40:31 21 11 20.8
003A7977 2019-03-06 15:09:20 21 11 22
003A7977 2019-03-06 14:38:12 20.9 11 22.2
003A7977 2019-03-06 14:07:03 20.8 11 22.3
003A7977 2019-03-06 13:35:53 20.7 11 22.3
003A7977 2019-03-06 13:04:42 20.7 11 22.3
003A7977 2019-03-06 12:33:32 20.8 11 21.3
003A7977 2019-03-06 12:02:23 20.7 11 21.2
003A7977 2019-03-06 11:31:16 20.7 11 21.1
003A7977 2019-03-06 11:00:07 20.7 12 21.2
003A7977 2019-03-06 10:28:58 20.7 12 21.3
003A7977 2019-03-06 09:57:50 20.5 11 21.4
003A7977 2019-03-06 09:26:42 20.5 11 21.4
003A7977 2019-03-06 08:55:34 20.5 12 21.3
003A7977 2019-03-06 08:24:24 20.5 12 21.3
003A7977 2019-03-06 07:53:14 20.6 12 21.2
003A7977 2019-03-06 07:22:05 20.6 12 21.2
003A7977 2019-03-06 06:50:58 20.6 12 21.2
003A7977 2019-03-06 06:19:48 20.6 12 21.2
003A7977 2019-03-06 05:48:39 20.6 13 21.2
003A7977 2019-03-06 05:17:31 20.6 13 21.1
003A7977 2019-03-06 04:46:21 20.6 13 20.9
003A7977 2019-03-06 04:15:12 20.6 13 21
003A7977 2019-03-06 03:44:04 20.6 13 20.9
003A7977 2019-03-06 03:12:55 20.7 13 20.9
003A7977 2019-03-06 02:41:47 20.7 13 20.9
003A7977 2019-03-06 02:10:39 20.7 13 19.4
003A7977 2019-03-06 01:39:31 20.7 13 19
003A7977 2019-03-06 01:08:22 20.8 13 19
003A7977 2019-03-06 00:37:14 20.8 13 19.2
003A7977 2019-03-06 00:06:05 20.8 13 19.1
003A7977 2019-03-05 23:34:54 20.8 13 19.1
003A7977 2019-03-05 23:03:44 20.9 13 19
003A7977 2019-03-05 22:32:33 20.9 13 19.2
003A7977 2019-03-05 22:01:23 20.9 13 18.9
003A7977 2019-03-05 21:30:16 20.9 13 18.9
003A7977 2019-03-05 20:59:08 21 13 19
003A7977 2019-03-05 20:28:01 21 13 19.1
003A7977 2019-03-05 19:56:52 21 13 19.2
003A7977 2019-03-05 19:25:43 21 13 19.1
003A7977 2019-03-05 18:54:34 21 13 19.2
003A7977 2019-03-05 18:23:24 21 14 19.3
003A7977 2019-03-05 17:52:16 21 14 19.2
003A7977 2019-03-05 17:21:09 21.1 14 19
003A7977 2019-03-05 16:49:58 21.1 15 19
003A7977 2019-03-05 16:18:48 21 15 19.2
003A7977 2019-03-05 15:47:07 20.9 15 19
003A7977 2019-03-05 15:16:01 20.8 16 18.8
003A7977 2019-03-05 14:44:53 20.7 16 19.1
003A7977 2019-03-05 14:13:46 20.7 16 19.1
003A7977 2019-03-05 13:42:37 20.7 17 19
003A7977 2019-03-05 13:11:30 20.7 17 19
003A7977 2019-03-05 12:40:22 20.7 17 18.9
003A7977 2019-03-05 12:09:14 20.6 17 18.6
003A7977 2019-03-05 11:38:07 20.6 17 18.5
003A7977 2019-03-05 11:07:02 20.6 18 18.5
003A7977 2019-03-05 10:35:53 20.6 18 18.5
003A7977 2019-03-05 10:04:45 20.6 18 18.3
003A7977 2019-03-05 09:33:39 20.6 18 18.4
003A7977 2019-03-05 09:02:33 20.6 18 18.4
003A7977 2019-03-05 08:31:25 20.6 18 18.2
003A7977 2019-03-05 08:00:18 20.6 19 17.9
003A7977 2019-03-05 07:29:10 20.6 19 17.8
003A7977 2019-03-05 06:58:02 20.6 19 17.9
003A7977 2019-03-05 06:26:56 20.6 19 17.7
003A7977 2019-03-05 05:55:49 20.6 19 17.4
003A7977 2019-03-05 05:24:44 20.6 19 17.5
003A7977 2019-03-05 04:53:35 20.6 19 17.6
003A7977 2019-03-05 04:22:30 20.7 19 17.8
003A7977 2019-03-05 03:51:20 20.6 19 17.7
003A7977 2019-03-05 03:20:11 20.7 19 17.6
003A7977 2019-03-05 02:49:01 20.6 19 17.6
003A7977 2019-03-05 02:17:52 20.6 19 17.4
003A7977 2019-03-05 01:46:41 20.6 19 17
003A7977 2019-03-05 01:15:33 20.6 19 16.5
003A7977 2019-03-05 00:44:25 20.6 19 16.4
003A7977 2019-03-05 00:13:15 20.6 18 16.3
003A7977 2019-03-04 23:42:07 20.6 18 16.8
003A7977 2019-03-04 23:10:59 20.7 18 16.9
003A7977 2019-03-04 22:39:51 20.6 18 16.8
003A7977 2019-03-04 22:08:43 20.6 18 16.6
003A7977 2019-03-04 21:37:34 20.7 18 17.3
003A7977 2019-03-04 21:06:24 20.7 18 17.3
003A7977 2019-03-04 20:35:16 20.7 18 17.4
003A7977 2019-03-04 20:04:08 20.7 18 17.7
003A7977 2019-03-04 19:33:02 20.7 18 18
003A7977 2019-03-04 19:01:53 20.7 18 20.1
003A7977 2019-03-04 18:30:45 20.7 18 20.3
003A7977 2019-03-04 17:59:37 20.7 18 20.2
003A7977 2019-03-04 17:28:29 20.7 18 20.2
003A7977 2019-03-04 16:57:22 20.7 18 20.3
003A7977 2019-03-04 16:26:17 20.6 18 20.2
003A7977 2019-03-04 15:55:07 20.6 18 20.3
003A7977 2019-03-04 15:24:00 20.6 17 20.4
003A7977 2019-03-04 14:52:52 20.6 17 20.4
003A7977 2019-03-04 14:21:44 20.5 17 20.5
003A7977 2019-03-04 13:50:02 20.5 17 21.9
003A7977 2019-03-04 13:18:56 20.5 17 21.9
003A7977 2019-03-04 12:47:47 20.5 17 21.9
003A7977 2019-03-04 12:16:38 20.4 17 21.9
003A7977 2019-03-04 11:45:31 20.4 17 22
003A7977 2019-03-04 11:14:23 20.3 17 22
003A7977 2019-03-04 10:43:16 20.3 17 21.9
003A7977 2019-03-04 10:12:09 20.2 17 21.9
003A7977 2019-03-04 09:40:59 20.2 17 21.9
003A7977 2019-03-04 09:09:52 20.2 17 21.7
003A7977 2019-03-04 08:38:42 20.1 17 21.7
003A7977 2019-03-04 08:07:32 20.2 18 21.6
003A7977 2019-03-04 07:36:26 20.2 18 21.4
003A7977 2019-03-04 07:05:15 20.2 18 21.5
003A7977 2019-03-04 06:34:06 20.2 18 20.1
003A7977 2019-03-04 06:03:00 20.2 18 20
003A7977 2019-03-04 05:31:49 20.2 18 20.1
003A7977 2019-03-04 05:00:40 20.2 18 20.3
003A7977 2019-03-04 04:29:29 20.2 18 20.5
003A7977 2019-03-04 03:58:20 20.2 18 20.8
003A7977 2019-03-04 03:27:13 20.2 18 20.7
003A7977 2019-03-04 02:56:06 20.2 17 20.5
003A7977 2019-03-04 02:24:59 20.2 17 20.7
003A7977 2019-03-04 01:53:50 20.2 17 21.8
003A7977 2019-03-04 01:22:42 20.2 17 20.8
003A7977 2019-03-04 00:51:33 20.2 17 20.8
003A7977 2019-03-04 00:20:24 20.2 17 20.8
003A7977 2019-03-03 23:49:15 20.2 17 21
003A7977 2019-03-03 23:18:06 20.2 17 21.3
003A7977 2019-03-03 22:46:56 20.2 17 21.3
003A7977 2019-03-03 22:15:47 20.2 17 21.3
003A7977 2019-03-03 21:44:38 20.2 17 21.5
003A7977 2019-03-03 21:13:29 20.3 17 21.7
003A7977 2019-03-03 20:42:21 20.2 17 21.8
003A7977 2019-03-03 20:11:13 20.3 18 21.8
003A7977 2019-03-03 19:40:06 20.3 18 21.9
003A7977 2019-03-03 19:08:58 20.3 18 22
003A7977 2019-03-03 18:37:50 20.3 18 22
003A7977 2019-03-03 18:06:42 20.3 18 21.9
003A7977 2019-03-03 17:35:34 20.3 18 22
003A7977 2019-03-03 17:04:25 20.3 18 21.9
003A7977 2019-03-03 16:33:16 20.4 18 22
003A7977 2019-03-03 16:02:10 20.3 18 21.9
003A7977 2019-03-03 15:30:58 20.3 18 21.8
003A7977 2019-03-03 14:59:51 20.3 18 21.6
003A7977 2019-03-03 14:28:43 20.3 18 21.6
003A7977 2019-03-03 13:57:37 20.3 18 21.7
003A7977 2019-03-03 13:26:25 20.3 18 21.6
003A7977 2019-03-03 12:55:16 20.3 18 20.2
003A7977 2019-03-03 12:24:08 20.3 18 19.9
003A7977 2019-03-03 11:52:27 20.3 18 20
003A7977 2019-03-03 11:21:20 20.3 18 19.6
003A7977 2019-03-03 10:50:13 20.3 18 19.5
003A7977 2019-03-03 10:19:04 20.3 18 19.5
003A7977 2019-03-03 09:47:55 20.4 18 19.3
003A7977 2019-03-03 09:16:47 20.3 18 18.9
003A7977 2019-03-03 08:45:39 20.4 18 18.6
003A7977 2019-03-03 08:14:31 20.4 18 18.8
003A7977 2019-03-03 07:43:23 20.4 18 19
003A7977 2019-03-03 07:12:16 20.4 18 18.9
003A7977 2019-03-03 06:41:08 20.4 18 19.1
003A7977 2019-03-03 06:10:00 20.4 18 19
003A7977 2019-03-03 05:38:52 20.4 18 18.8
003A7977 2019-03-03 05:07:45 20.4 18 18.7
003A7977 2019-03-03 04:36:36 20.4 18 18.8
003A7977 2019-03-03 04:05:26 20.4 18 18.5
003A7977 2019-03-03 03:34:18 20.4 18 18.5
003A7977 2019-03-03 03:03:10 20.4 18 18.3
003A7977 2019-03-03 02:32:01 20.5 18 18.7
003A7977 2019-03-03 02:00:52 20.4 18 18.7
003A7977 2019-03-03 01:29:44 20.5 18 18.6
003A7977 2019-03-03 00:58:37 20.5 18 18.5
003A7977 2019-03-03 00:27:27 20.5 18 18.6
003A7977 2019-03-02 23:56:18 20.5 18 18.7
003A7977 2019-03-02 23:25:10 20.5 18 18.6
003A7977 2019-03-02 22:54:01 20.5 18 20.4
003A7977 2019-03-02 22:22:53 20.5 18 20.4
003A7977 2019-03-02 21:51:44 20.5 18 20.5
003A7977 2019-03-02 20:49:28 20.5 17 20.4
003A7977 2019-03-02 20:18:20 20.5 17 20.7
003A7977 2019-03-02 19:47:14 20.6 17 20.8
003A7977 2019-03-02 19:16:05 20.6 17 20.9
003A7977 2019-03-02 18:44:57 20.6 17 20.8
003A7977 2019-03-02 18:13:49 20.6 17 20.8
003A7977 2019-03-02 17:42:41 20.6 17 20.8
003A7977 2019-03-02 17:11:36 20.7 17 20.8
003A7977 2019-03-02 16:40:31 20.6 17 22
003A7977 2019-03-02 16:09:24 20.6 17 22.2
003A7977 2019-03-02 15:38:17 20.6 17 22.3
003A7977 2019-03-02 15:07:10 20.5 17 22.3
003A7977 2019-03-02 14:36:03 20.5 16 22.5
003A7977 2019-03-02 14:04:57 20.5 16 22.4
003A7977 2019-03-02 13:33:50 20.5 16 22.4
003A7977 2019-03-02 13:02:43 20.5 16 22.4
003A7977 2019-03-02 12:31:35 20.5 16 22.5
003A7977 2019-03-02 12:00:28 20.5 16 22.7
003A7977 2019-03-02 11:29:20 20.5 16 22.6
003A7977 2019-03-02 10:58:13 20.5 16 22.6
003A7977 2019-03-02 10:27:06 20.5 16 22.7
003A7977 2019-03-02 09:55:27 20.5 16 21.8
003A7977 2019-03-02 09:24:18 20.5 15 21.8
003A7977 2019-03-02 08:53:10 20.5 15 21.6
003A7977 2019-03-02 07:50:53 20.5 15 21.7
003A7977 2019-03-02 07:19:46 20.5 15 21.5
003A7977 2019-03-02 06:48:39 20.5 15 22.4
003A7977 2019-03-02 06:17:32 20.6 15 22.5
003A7977 2019-03-02 05:46:24 20.6 15 22.5
003A7977 2019-03-02 05:15:17 20.6 15 22.4
003A7977 2019-03-02 04:44:08 20.6 15 22.3
003A7977 2019-03-02 04:12:59 20.6 14 22.2
003A7977 2019-03-02 03:41:51 20.6 14 21
003A7977 2019-03-02 03:10:43 20.7 14 20.9
003A7977 2019-03-02 02:39:35 20.7 14 20.8
003A7977 2019-03-02 02:08:29 20.7 14 20.6
003A7977 2019-03-02 01:37:24 20.8 14 20.4
003A7977 2019-03-02 01:06:14 20.8 14 20.5
003A7977 2019-03-02 00:35:07 20.8 14 20.6
003A7977 2019-03-02 00:04:01 20.9 14 20.5
003A7977 2019-03-01 23:32:56 20.9 13 20.4
003A7977 2019-03-01 23:01:51 21 13 20.3
003A7977 2019-03-01 22:30:45 21 13 20.4
003A7977 2019-03-01 21:59:39 21.1 13 20.7
003A7977 2019-03-01 21:28:32 21.1 13 20.6
003A7977 2019-03-01 20:57:24 21.1 13 20.6
003A7977 2019-03-01 20:26:19 21.1 13 20.6
003A7977 2019-03-01 19:55:13 21.1 13 21
003A7977 2019-03-01 19:24:08 21.1 13 21
003A7977 2019-03-01 18:53:02 21.2 12 21
003A7977 2019-03-01 18:21:57 21.3 13 22.1
003A7977 2019-03-01 17:50:50 21.4 13 21
003A7977 2019-03-01 17:19:44 21.6 13 21
003A7977 2019-03-01 16:48:36 21.6 14 21.1
003A7977 2019-03-01 16:17:30 21.5 14 21.2
003A7977 2019-03-01 15:46:23 21.2 14 21.2
003A7977 2019-03-01 15:15:15 21.2 14 21.3
003A7977 2019-03-01 14:44:11 21 15 21.4
003A7977 2019-03-01 14:12:59 21 15 21.3
003A7977 2019-03-01 13:41:52 20.9 15 21.4
003A7977 2019-03-01 13:10:42 20.9 15 21.5
003A7977 2019-03-01 12:39:32 21 16 21.5
003A7977 2019-03-01 12:08:23 21 16 21.5
003A7977 2019-03-01 11:37:14 21 16 21.5
003A7977 2019-03-01 11:06:06 21 16 21.4
003A7977 2019-03-01 10:34:57 20.9 16 21.5
003A7977 2019-03-01 10:03:50 20.8 16 21.3
003A7977 2019-03-01 09:32:41 20.7 17 21.5
003A7977 2019-03-01 09:01:33 20.6 17 21.4
003A7977 2019-03-01 08:30:24 20.6 17 21.3
003A7977 2019-03-01 07:58:43 20.6 18 21.4
003A7977 2019-03-01 07:27:35 20.7 18 21.1
003A7977 2019-03-01 06:56:27 20.7 18 21.1
003A7977 2019-03-01 06:25:20 20.7 18 21.3
003A7977 2019-03-01 05:54:15 20.7 19 19.9
003A7977 2019-03-01 05:23:05 20.7 19 19.8
003A7977 2019-03-01 04:51:56 20.7 19 19.8
003A7977 2019-03-01 04:20:48 20.7 19 19.6
003A7977 2019-03-01 03:49:40 20.7 20 19.9
003A7977 2019-03-01 03:18:30 20.7 20 20
003A7977 2019-03-01 02:47:23 20.8 20 20
003A7977 2019-03-01 02:16:16 20.8 20 19.9
003A7977 2019-03-01 01:45:08 20.8 21 19.9
003A7977 2019-03-01 01:14:00 20.8 21 19.7
003A7977 2019-03-01 00:42:52 20.8 21 19.6
003A7977 2019-03-01 00:11:44 20.8 21 19.9
003A7977 2019-02-28 23:40:37 20.8 22 19.8
003A7977 2019-02-28 23:09:29 20.9 22 19.8
003A7977 2019-02-28 22:38:21 20.9 22 19.7
003A7977 2019-02-28 22:07:11 20.9 23 19.6
003A7977 2019-02-28 21:36:00 21 23 19.8
003A7977 2019-02-28 21:04:51 21 23 19.4
003A7977 2019-02-28 20:33:42 21 23 19.6
003A7977 2019-02-28 20:02:35 21.1 23 19.8
003A7977 2019-02-28 19:31:27 21.1 24 19.5
003A7977 2019-02-28 19:00:20 21.1 24 19.5
003A7977 2019-02-28 18:29:13 21.2 24 19.4
003A7977 2019-02-28 17:58:06 21.3 25 19.5
003A7977 2019-02-28 17:27:00 21.4 26 19.2
003A7977 2019-02-28 16:55:54 21.4 26 19.3
003A7977 2019-02-28 16:24:46 21.4 27 19.3
003A7977 2019-02-28 15:53:39 21.4 26 19.2
003A7977 2019-02-28 15:22:32 21.3 25 19.3
003A7977 2019-02-28 14:51:22 21.3 25 19.3
003A7977 2019-02-28 14:20:16 21.3 25 19.4
003A7977 2019-02-28 13:49:09 21.3 25 19.3
003A7977 2019-02-28 13:18:01 21.3 25 19.5
003A7977 2019-02-28 12:46:55 21.3 25 19.7
003A7977 2019-02-28 12:15:49 21.2 25 19.9
003A7977 2019-02-28 11:44:42 21.2 24 20
003A7977 2019-02-28 11:13:35 21.2 24 19.6
003A7977 2019-02-28 10:42:28 21 24 19.6
003A7977 2019-02-28 09:40:14 20.9 23 19.7
003A7977 2019-02-28 09:09:07 20.9 22 19.7
003A7977 2019-02-28 08:37:59 20.9 22 19.7
003A7977 2019-02-28 08:06:53 20.9 22 19.9
003A7977 2019-02-28 07:35:45 20.8 22 19.4
003A7977 2019-02-28 07:04:37 20.9 22 19.2
003A7977 2019-02-28 06:33:31 20.9 22 19.3
003A7977 2019-02-28 06:01:57 20.9 22 19.3
003A7977 2019-02-28 05:30:51 20.9 22 19.1
003A7977 2019-02-28 04:59:44 20.9 22 19.1
003A7977 2019-02-28 04:28:39 20.9 22 18.9
003A7977 2019-02-28 03:57:32 20.9 22 18.9
003A7977 2019-02-28 03:26:26 20.9 22 19
003A7977 2019-02-28 02:55:18 20.9 22 19.1
003A7977 2019-02-28 02:24:10 20.9 22 18.9
003A7977 2019-02-28 01:53:01 21 22 18.8
003A7977 2019-02-28 01:21:54 21 22 18.7
003A7977 2019-02-28 00:50:49 20.9 22 18.6
003A7977 2019-02-28 00:19:43 21 22 18.6
003A7977 2019-02-27 23:48:37 21 22 18.6
003A7977 2019-02-27 23:17:30 21.1 22 18.4
003A7977 2019-02-27 22:46:25 21.1 23 18.5
003A7977 2019-02-27 22:15:20 21.1 23 18.4
003A7977 2019-02-27 21:44:14 21.2 23 18.7
003A7977 2019-02-27 21:13:08 21.2 23 18.9
003A7977 2019-02-27 20:42:01 21.3 23 19.1
003A7977 2019-02-27 20:10:57 21.3 23 19
003A7977 2019-02-27 19:39:48 21.3 23 19.1
003A7977 2019-02-27 19:08:41 21.3 23 19.4
003A7977 2019-02-27 18:37:33 21.4 24 19.5
003A7977 2019-02-27 18:06:25 21.6 24 19.7
003A7977 2019-02-27 17:35:16 21.7 25 20
003A7977 2019-02-27 17:04:08 21.7 25 20.1
003A7977 2019-02-27 16:33:01 21.7 26 20.1
003A7977 2019-02-27 16:01:53 21.7 26 20.2
003A7977 2019-02-27 15:30:46 21.6 26 20.4
003A7977 2019-02-27 14:59:38 21.5 26 20.7
003A7977 2019-02-27 14:28:29 21.4 26 20.8
003A7977 2019-02-27 13:57:19 21.3 26 20.6
003A7977 2019-02-27 13:26:12 21.3 25 20.7
003A7977 2019-02-27 12:55:04 21.3 25 20.8
003A7977 2019-02-27 12:23:56 21.3 25 20.9
003A7977 2019-02-27 11:52:49 21.2 25 20.8
003A7977 2019-02-27 11:21:40 21.2 25 20.8
003A7977 2019-02-27 10:50:33 21.2 25 20.7
003A7977 2019-02-27 10:19:26 21.1 25 20.8
003A7977 2019-02-27 09:48:21 21.1 25 21
003A7977 2019-02-27 09:17:13 21 24 21.1
003A7977 2019-02-27 08:46:06 21 24 21
003A7977 2019-02-27 08:14:57 21 24 21
003A7977 2019-02-27 07:43:48 21 23 20.8
003A7977 2019-02-27 07:12:40 21 23 21
003A7977 2019-02-27 06:41:32 21 23 21
003A7977 2019-02-27 06:10:26 21 23 21
003A7977 2019-02-27 05:39:18 21 23 21
003A7977 2019-02-27 05:08:12 21.1 23 21.1
003A7977 2019-02-27 04:37:04 21.1 23 20.8
003A7977 2019-02-27 04:05:24 21.1 23 20.9
003A7977 2019-02-27 03:34:16 21.1 23 20.8
003A7977 2019-02-27 03:03:08 21.1 23 20.8
003A7977 2019-02-27 02:32:01 21.1 23 20.6
003A7977 2019-02-27 02:00:53 21.2 23 20.4
003A7977 2019-02-27 01:29:46 21.2 24 20.6
003A7977 2019-02-27 00:58:37 21.2 24 20.4
003A7977 2019-02-27 00:27:31 21.3 24 20.4
003A7977 2019-02-26 23:56:25 21.3 24 21.6
003A7977 2019-02-26 23:25:19 21.3 24 21.6
003A7977 2019-02-26 22:54:15 21.3 24 21.4
003A7977 2019-02-26 22:23:07 21.4 24 21.5
003A7977 2019-02-26 21:52:01 21.4 24 22.4
003A7977 2019-02-26 21:20:55 21.5 24 23.2
003A7977 2019-02-26 20:49:48 21.5 24 23.9
003A7977 2019-02-26 20:18:40 21.6 24 24.5
003A7977 2019-02-26 19:47:33 21.6 24 25
003A7977 2019-02-26 19:16:25 21.7 24 25.5
003A7977 2019-02-26 18:45:17 21.7 24 25.8
003A7977 2019-02-26 18:14:10 21.8 24 26.2
003A7977 2019-02-26 17:43:03 21.9 24 26.6
003A7977 2019-02-26 17:11:55 22 25 26.9
003A7977 2019-02-26 16:40:47 22 25 27.1
003A7977 2019-02-26 16:09:41 21.9 25 27.5
003A7977 2019-02-26 15:38:34 21.9 25 27.7
003A7977 2019-02-26 15:07:28 21.7 25 28
003A7977 2019-02-26 14:36:23 21.6 25 28.3
003A7977 2019-02-26 14:05:17 21.6 25 28.5
003A7977 2019-02-26 13:34:10 21.6 25 28.7
003A7977 2019-02-26 13:03:04 21.6 25 28.9
003A7977 2019-02-26 12:31:57 21.5 25 29.1
003A7977 2019-02-26 12:00:50 21.5 25 29.3
003A7977 2019-02-26 11:29:44 21.4 25 29.5
003A7977 2019-02-26 10:58:38 21.4 25 29.5
003A7977 2019-02-26 10:27:31 21.2 24 29.7
003A7977 2019-02-26 09:56:25 21.1 24 29.8
003A7977 2019-02-26 09:25:19 21.1 24 30
003A7977 2019-02-26 08:54:12 21 23 30
003A7977 2019-02-26 08:23:06 21 23 30
003A7977 2019-02-26 07:52:00 21 23 30
003A7977 2019-02-26 07:20:54 21 23 30
003A7977 2019-02-26 06:49:47 21 23 30
003A7977 2019-02-26 06:18:41 21 23 30
003A7977 2019-02-26 05:47:35 21 23 30
003A7977 2019-02-26 05:16:29 21 23 30
003A7977 2019-02-26 04:45:21 21 22 29.8
003A7977 2019-02-26 04:14:14 21 22 29.8
003A7977 2019-02-26 03:43:08 21.1 22 29.8
003A7977 2019-02-26 03:12:04 21 22 29.8
003A7977 2019-02-26 02:41:00 21.1 22 29.7
003A7977 2019-02-26 02:09:15 21.1 22 29.5
003A7977 2019-02-26 01:38:11 21.1 22 29.3
003A7977 2019-02-26 01:07:06 21.1 22 29.1
003A7977 2019-02-26 00:36:02 21.1 22 28.9
003A7977 2019-02-26 00:04:57 21.2 22 28.7
003A7977 2019-02-25 23:33:51 21.2 21 28.5
003A7977 2019-02-25 23:02:46 21.2 21 28.3
003A7977 2019-02-25 22:31:41 21.3 21 28
003A7977 2019-02-25 22:00:37 21.3 21 27.7
003A7977 2019-02-25 21:29:30 21.4 21 27.5
003A7977 2019-02-25 20:58:25 21.4 21 27.1
003A7977 2019-02-25 20:27:19 21.5 21 26.8
003A7977 2019-02-25 19:56:13 21.5 21 26.5
003A7977 2019-02-25 19:25:09 21.6 21 26.2
003A7977 2019-02-25 18:54:03 21.6 21 25.8
003A7977 2019-02-25 18:22:58 21.7 21 25.4
003A7977 2019-02-25 17:51:53 21.7 21 24.9
003A7977 2019-02-25 17:20:47 21.7 22 24.4
003A7977 2019-02-25 16:49:41 21.7 22 23.7
003A7977 2019-02-25 16:18:36 21.7 22 23.7
003A7977 2019-02-25 15:47:31 21.8 22 23.7
003A7977 2019-02-25 15:16:25 21.8 23 23
003A7977 2019-02-25 14:45:20 21.6 22 22
003A7977 2019-02-25 14:14:15 21.5 22 20.8
003A7977 2019-02-25 13:43:10 21.4 22 21
003A7977 2019-02-25 13:12:07 21.4 22 20.9
003A7977 2019-02-25 12:41:00 21.3 22 20.7
003A7977 2019-02-25 12:09:53 21.2 22 20.8
003A7977 2019-02-25 11:38:47 21.1 22 21.1
003A7977 2019-02-25 11:07:42 21.1 23 21
003A7977 2019-02-25 10:36:37 21 22 20.9
003A7977 2019-02-25 10:05:32 20.8 22 21
003A7977 2019-02-25 09:34:27 20.8 22 20.9
003A7977 2019-02-25 09:03:21 20.7 22 21
003A7977 2019-02-25 08:32:17 20.7 22 21.1
003A7977 2019-02-25 08:01:12 20.7 22 21.3
003A7977 2019-02-25 07:30:06 20.7 22 21.1
003A7977 2019-02-25 06:59:01 20.7 22 21.1
003A7977 2019-02-25 06:27:57 20.7 22 21.1
003A7977 2019-02-25 05:56:53 20.7 22 21
003A7977 2019-02-25 05:25:49 20.7 22 21
003A7977 2019-02-25 04:54:40 20.8 22 20.9
003A7977 2019-02-25 04:23:35 20.8 22 21
003A7977 2019-02-25 03:52:31 20.8 22 19.5
003A7977 2019-02-25 03:21:26 20.8 22 19.7
003A7977 2019-02-25 02:50:20 20.8 22 19.7
003A7977 2019-02-25 02:19:15 20.8 22 19.8
003A7977 2019-02-25 01:48:09 20.8 22 19.8
003A7977 2019-02-25 01:17:05 20.8 22 19.8
003A7977 2019-02-25 00:46:00 20.8 22 19.7
003A7977 2019-02-25 00:14:21 20.8 22 19.7
003A7977 2019-02-24 23:43:16 20.8 22 19.6
003A7977 2019-02-24 23:12:10 20.9 22 19.6
003A7977 2019-02-24 22:41:05 20.9 22 19.5
003A7977 2019-02-24 22:10:02 20.9 22 19.7
003A7977 2019-02-24 21:38:58 20.9 22 19.8
003A7977 2019-02-24 21:07:52 20.9 22 19.6
003A7977 2019-02-24 20:36:48 20.9 22 19.6
003A7977 2019-02-24 20:05:42 20.9 22 19.7
003A7977 2019-02-24 19:34:35 20.9 22 19.7
003A7977 2019-02-24 19:03:30 20.9 22 19.7
003A7977 2019-02-24 18:32:24 20.9 22 19.6
003A7977 2019-02-24 18:01:20 20.9 22 19.6
003A7977 2019-02-24 17:30:16 20.9 21 19.7
003A7977 2019-02-24 16:59:11 20.9 21 19.7
003A7977 2019-02-24 16:28:04 20.9 21 19.5
003A7977 2019-02-24 15:56:58 20.9 21 19.6
003A7977 2019-02-24 15:25:51 20.9 21 19.6
003A7977 2019-02-24 14:54:44 20.9 21 19.6
003A7977 2019-02-24 14:23:38 20.9 21 19.6
003A7977 2019-02-24 13:52:32 20.9 21 19.5
003A7977 2019-02-24 13:21:26 20.9 21 19.7
003A7977 2019-02-24 12:50:20 20.9 21 19.5
003A7977 2019-02-24 12:19:13 20.9 21 19.7
003A7977 2019-02-24 11:48:08 20.9 21 19.9
003A7977 2019-02-24 11:17:01 20.9 21 19.8
003A7977 2019-02-24 10:45:53 20.9 20 19.9
003A7977 2019-02-24 10:14:47 20.9 20 19.8
003A7977 2019-02-24 09:43:40 20.9 20 19.9
003A7977 2019-02-24 09:12:34 20.9 20 19.9
003A7977 2019-02-24 08:41:29 20.9 20 19.9
003A7977 2019-02-24 08:10:23 20.9 20 20.1
003A7977 2019-02-24 07:39:18 20.9 20 20
003A7977 2019-02-24 07:08:13 21 20 19.9
003A7977 2019-02-24 06:37:09 21 20 19.9
003A7977 2019-02-24 06:06:03 21 20 19.8
003A7977 2019-02-24 05:35:00 21 20 19.9
003A7977 2019-02-24 05:03:52 21 20 19.8
003A7977 2019-02-24 04:32:46 21 20 19.5
003A7977 2019-02-24 04:01:41 21 20 19.4
003A7977 2019-02-24 03:30:35 21 20 19.4
003A7977 2019-02-24 02:59:30 21.1 19 19.2
003A7977 2019-02-24 02:28:25 21.1 19 19.3
003A7977 2019-02-24 01:57:20 21.1 19 19.2
003A7977 2019-02-24 01:26:15 21.1 19 19.3
003A7977 2019-02-24 00:55:10 21.1 19 19.4
003A7977 2019-02-24 00:24:05 21.1 19 19.4
003A7977 2019-02-23 23:53:00 21.1 19 19.3
003A7977 2019-02-23 23:21:54 21.2 19 19.2
003A7977 2019-02-23 22:50:48 21.2 19 19
003A7977 2019-02-23 22:19:09 21.2 18 19.2
003A7977 2019-02-23 21:48:05 21.2 18 20.8
003A7977 2019-02-23 21:16:58 21.3 18 20.9
003A7977 2019-02-23 20:45:51 21.3 18 20.8
003A7977 2019-02-23 20:14:46 21.3 18 20.7
003A7977 2019-02-23 19:43:41 21.3 18 20.8
003A7977 2019-02-23 19:12:38 21.3 18 21
003A7977 2019-02-23 18:41:32 21.3 17 20.8
003A7977 2019-02-23 18:10:26 21.3 17 20.8
003A7977 2019-02-23 17:39:20 21.3 17 20.9
003A7977 2019-02-23 17:08:16 21.3 17 20.8
003A7977 2019-02-23 16:37:11 21.3 17 20.8
003A7977 2019-02-23 16:06:04 21.2 17 20.9
003A7977 2019-02-23 15:34:59 21.1 16 20.9
003A7977 2019-02-23 15:03:53 21.1 16 21.1
003A7977 2019-02-23 14:32:47 21 16 21.1
003A7977 2019-02-23 14:01:43 21 16 21
003A7977 2019-02-23 13:30:38 21 15 21.1
003A7977 2019-02-23 12:59:32 21 15 21.1
003A7977 2019-02-23 12:28:27 21 15 21.2
003A7977 2019-02-23 11:57:24 21 15 21.2
003A7977 2019-02-23 11:26:17 21 15 21.2
003A7977 2019-02-23 10:55:14 21 15 21.3
003A7977 2019-02-23 10:24:09 21 15 21.2
003A7977 2019-02-23 09:53:05 21 15 21.1
003A7977 2019-02-23 09:22:02 21 14 20.9
003A7977 2019-02-23 08:50:55 20.9 14 19.4
003A7977 2019-02-23 08:19:48 21 14 19.2
003A7977 2019-02-23 07:48:43 20.9 14 19.1
003A7977 2019-02-23 07:17:37 20.9 14 19.3
003A7977 2019-02-23 06:46:33 21 14 19.1
003A7977 2019-02-23 06:15:27 21 14 18.8
003A7977 2019-02-23 05:44:22 20.9 14 19
003A7977 2019-02-23 05:13:16 20.9 13 19.2
003A7977 2019-02-23 04:42:08 21 13 19.1
003A7977 2019-02-23 04:11:03 21 13 19.1
003A7977 2019-02-23 03:39:58 20.9 13 19.2
003A7977 2019-02-23 03:08:52 20.9 13 19.4
003A7977 2019-02-23 02:37:51 21 13 19.3
003A7977 2019-02-23 02:06:42 21 13 19.1
003A7977 2019-02-23 01:35:36 21 13 19.3
003A7977 2019-02-23 01:04:32 21 13 19.4
003A7977 2019-02-23 00:33:24 21 13 19
003A7977 2019-02-23 00:02:17 21 13 18.7
003A7977 2019-02-22 23:31:12 21 13 18.5
003A7977 2019-02-22 23:00:03 21.1 12 18.1
003A7977 2019-02-22 22:28:57 21.1 12 18.1
003A7977 2019-02-22 21:57:50 21.1 12 17.9
003A7977 2019-02-22 21:26:44 21.1 12 18
003A7977 2019-02-22 20:55:37 21.2 12 18.5
003A7977 2019-02-22 20:23:58 21.2 12 18.2
003A7977 2019-02-22 20:13:31 21.2 12 18.4
003A7977 2019-02-22 20:03:02 21.2 12 18.3
003A7977 2019-02-22 19:52:33 21.2 12 18.4
003A7977 2019-02-22 19:42:04 21.2 12 18.3
003A7977 2019-02-22 19:31:36 21.2 12 18.6
003A7977 2019-02-22 19:21:08 21.2 12 18.4
003A7977 2019-02-22 19:10:39 21.2 12 18.3
003A7977 2019-02-22 19:00:11 21.2 12 18.3
003A7977 2019-02-22 18:49:42 21.2 12 18.4
003A7977 2019-02-22 18:39:13 21.3 12 18.4
003A7977 2019-02-22 18:28:45 21.3 12 18
003A7977 2019-02-22 18:18:16 21.3 12 18.2
003A7977 2019-02-22 18:07:48 21.3 12 18.3
003A7977 2019-02-22 17:57:20 21.2 12 18.2
003A7977 2019-02-22 17:46:52 21.3 12 18.2
003A7977 2019-02-22 17:36:24 21.3 13 18.2
003A7977 2019-02-22 17:25:55 21.3 13 18.1
003A7977 2019-02-22 17:15:27 21.2 13 18.2
003A7977 2019-02-22 17:04:58 21.3 13 18.4
003A7977 2019-02-22 16:54:29 21.3 13 18.4
003A7977 2019-02-22 16:44:01 21.2 13 18.2
003A7977 2019-02-22 16:33:32 21.2 13 18.3
003A7977 2019-02-22 16:23:04 21.2 13 17.8
003A7977 2019-02-22 16:12:38 21.2 13 17.8
003A7977 2019-02-22 16:02:09 21.2 13 17.7
003A7977 2019-02-22 15:51:39 21.1 13 17.9
003A7977 2019-02-22 15:41:11 21.1 13 18
003A7977 2019-02-22 15:30:42 21.1 13 18.1
003A7977 2019-02-22 15:20:14 21.1 13 18.1
003A7977 2019-02-22 15:09:46 21 13 17.8
003A7977 2019-02-22 14:59:21 21 13 18.1
003A7977 2019-02-22 14:48:50 21 13 17.7
003A7977 2019-02-22 14:38:21 21 13 17.9
003A7977 2019-02-22 14:27:53 20.9 13 17.7
003A7977 2019-02-22 14:17:25 20.9 13 17.7
003A7977 2019-02-22 14:06:59 20.9 13 18
003A7977 2019-02-22 13:56:29 20.9 13 18.2
003A7977 2019-02-22 13:46:01 20.8 13 18.1
003A7977 2019-02-22 13:35:34 20.9 13 18
003A7977 2019-02-22 13:25:05 20.9 13 18.5
003A7977 2019-02-22 13:14:38 20.8 13 18.7
003A7977 2019-02-22 13:04:10 20.8 13 18.8
003A7977 2019-02-22 12:53:44 20.8 13 20.6
003A7977 2019-02-22 12:43:16 20.8 13 20.5
003A7977 2019-02-22 12:32:47 20.8 13 20.5
003A7977 2019-02-22 12:22:19 20.8 13 20.7
003A7977 2019-02-22 12:11:51 20.8 13 20.6
003A7977 2019-02-22 12:01:26 20.8 13 20.8
003A7977 2019-02-22 11:50:56 20.7 13 21
003A7977 2019-02-22 11:39:55 20.7 13 21.1
003A7977 2019-02-22 11:08:49 20.7 13 21.2
003A7977 2019-02-22 10:37:43 20.6 13 21.1
003A7977 2019-02-22 10:06:37 20.6 13 21.3
003A7977 2019-02-22 09:35:32 20.5 13 21.4
003A7977 2019-02-22 09:04:22 20.5 13 21.3
003A7977 2019-02-22 08:33:16 20.6 13 21.5
003A7977 2019-02-22 08:02:07 20.6 14 21.6
003A7977 2019-02-22 07:30:59 20.6 14 21.7
003A7977 2019-02-22 06:59:51 20.6 14 21.6
003A7977 2019-02-22 06:28:44 20.6 14 21.6
003A7977 2019-02-22 05:57:37 20.7 14 21.5
003A7977 2019-02-22 05:26:28 20.6 14 21.4
003A7977 2019-02-22 04:55:22 20.7 14 21.4
003A7977 2019-02-22 04:24:16 20.7 14 21.2
003A7977 2019-02-22 03:53:07 20.7 14 21.1
003A7977 2019-02-22 03:21:59 20.7 14 21.1
003A7977 2019-02-22 02:50:51 20.7 14 21.1
003A7977 2019-02-22 02:19:44 20.7 14 22.2
003A7977 2019-02-22 01:48:36 20.8 13 23.1
003A7977 2019-02-22 01:17:30 20.8 14 23.8
003A7977 2019-02-22 00:46:24 20.8 14 23.8
003A7977 2019-02-22 00:15:17 20.8 13 24.4
003A7977 2019-02-21 23:44:11 20.8 13 24.3
003A7977 2019-02-21 23:13:05 20.9 13 24.2
003A7977 2019-02-21 22:41:59 20.9 13 24.2
003A7977 2019-02-21 22:10:52 20.9 13 24.2
003A7977 2019-02-21 21:39:45 21 13 24.1
003A7977 2019-02-21 21:08:38 21 13 24.1
003A7977 2019-02-21 20:37:31 21 13 24
003A7977 2019-02-21 20:06:24 21.1 13 23.9
003A7977 2019-02-21 19:35:19 21.1 13 23.8
003A7977 2019-02-21 19:04:14 21.1 13 23.7
003A7977 2019-02-21 18:33:08 21.2 13 23.7
003A7977 2019-02-21 18:02:03 21.3 13 23.7
003A7977 2019-02-21 17:30:56 21.3 13 23.6
003A7977 2019-02-21 16:59:53 21.3 13 23.6
003A7977 2019-02-21 16:28:43 21.2 13 23.6
003A7977 2019-02-21 15:57:37 21.1 13 23.6
003A7977 2019-02-21 15:26:31 20.9 13 23.5
003A7977 2019-02-21 14:55:25 20.8 13 23.5
003A7977 2019-02-21 14:24:18 20.7 13 23.5
003A7977 2019-02-21 13:53:12 20.7 13 22.7
003A7977 2019-02-21 13:22:06 20.7 14 21.7
003A7977 2019-02-21 12:50:59 20.7 14 20.3
003A7977 2019-02-21 12:19:52 20.7 14 18.5
003A7977 2019-02-21 11:48:46 20.7 15 18.5
003A7977 2019-02-21 11:17:37 20.7 15 15.4
003A7977 2019-02-21 10:46:30 20.7 15 15.4
003A7977 2019-02-21 10:15:23 20.7 15 15.4
003A7977 2019-02-21 09:43:34 20.6 16 15.5
003A7977 2019-02-21 09:12:28 20.6 16 15
003A7977 2019-02-21 08:41:22 20.6 16 15
003A7977 2019-02-21 08:10:17 20.6 17 14.8
003A7977 2019-02-21 07:39:09 20.7 17 14.4
003A7977 2019-02-21 07:08:03 20.7 17 14.4
003A7977 2019-02-21 06:36:56 20.7 17 14.4
003A7977 2019-02-21 06:05:51 20.7 17 14.3
003A7977 2019-02-21 05:34:43 20.7 17 14.2
003A7977 2019-02-21 05:03:38 20.7 18 14.9
003A7977 2019-02-21 04:32:32 20.7 18 14.8
003A7977 2019-02-21 04:01:25 20.7 18 15.1
003A7977 2019-02-21 03:30:22 20.7 18 15.2
003A7977 2019-02-21 02:59:13 20.7 18 15.4
003A7977 2019-02-21 02:28:09 20.8 18 15.4
003A7977 2019-02-21 01:56:58 20.7 18 18.7
003A7977 2019-02-21 01:25:50 20.8 18 18.7
003A7977 2019-02-21 00:54:42 20.8 19 20.5
003A7977 2019-02-21 00:23:33 20.8 19 21.8
003A7977 2019-02-20 23:52:25 20.8 19 21.9
003A7977 2019-02-20 23:21:17 20.8 19 21.8
003A7977 2019-02-20 22:50:12 20.8 19 21.8
003A7977 2019-02-20 22:19:08 20.8 19 21.8
003A7977 2019-02-20 21:48:01 20.8 19 22.8
003A7977 2019-02-20 21:16:54 20.8 19 22.9
003A7977 2019-02-20 20:45:47 20.9 19 22.9
003A7977 2019-02-20 20:14:40 20.9 19 23
003A7977 2019-02-20 19:43:34 20.9 20 23
003A7977 2019-02-20 19:12:28 20.9 20 23.1
003A7977 2019-02-20 18:41:23 20.9 20 23.1
003A7977 2019-02-20 18:10:18 20.9 20 23.2
003A7977 2019-02-20 17:39:11 20.9 20 23.2
003A7977 2019-02-20 17:08:06 21 21 23.3
003A7977 2019-02-20 16:37:03 21 22 23.3
003A7977 2019-02-20 16:05:56 20.9 22 23.3
003A7977 2019-02-20 15:34:54 20.9 22 23.5
003A7977 2019-02-20 15:03:44 20.9 22 23.5
003A7977 2019-02-20 14:32:37 20.9 23 23.6